Wetterdaten: Mittwoch, 05.05.2021
Datum Zeit Temp. Aussen Temp. o. S. Temp +5cm Feuchte Auss Luftdruck Regen Sonnenschein Regendauer Solar Windben Empfang
05.05.2021 00:00 6,7 C 6,1 C 3,9 C 89 % 1002,0 hPa 0,0 l/m 0 min 0 min 0 W/m 12,9 km/h (3 Bft) 97,92 %
05.05.2021 00:02 6,7 C 6,1 C 3,9 C 89 % 1002,1 hPa 0,0 l/m 0 min 0 min 0 W/m 16,1 km/h (3 Bft) 100,00 %
05.05.2021 00:04 6,6 C 6,1 C 3,9 C 89 % 1002,1 hPa 0,0 l/m 0 min 0 min 0 W/m 16,1 km/h (3 Bft) 100,00 %
05.05.2021 00:08 6,6 C 5,6 C 3,9 C 89 % 1002,1 hPa 0,0 l/m 0 min 0 min 0 W/m 16,1 km/h (3 Bft) 96,77 %
05.05.2021 00:10 6,6 C 6,1 C 3,9 C 89 % 1002,1 hPa 0,0 l/m 0 min 0 min 0 W/m 12,9 km/h (3 Bft) 100,00 %
05.05.2021 00:12 6,5 C 6,1 C 3,9 C 89 % 1002,1 hPa 0,0 l/m 0 min 0 min 0 W/m 12,9 km/h (3 Bft) 95,35 %
05.05.2021 00:14 6,5 C 5,6 C 3,9 C 89 % 1002,1 hPa 0,0 l/m 0 min 0 min 0 W/m 9,7 km/h (2 Bft) 98,00 %
05.05.2021 00:16 6,5 C 5,6 C 3,9 C 89 % 1002,1 hPa 0,0 l/m 0 min 0 min 0 W/m 12,9 km/h (3 Bft) 97,92 %
05.05.2021 00:18 6,5 C 5,6 C 3,9 C 89 % 1002,1 hPa 0,0 l/m 0 min 0 min 0 W/m 12,9 km/h (3 Bft) 97,83 %
05.05.2021 00:20 6,5 C 5,6 C 3,9 C 89 % 1002,1 hPa 0,0 l/m 0 min 0 min 0 W/m 9,7 km/h (2 Bft) 97,87 %
05.05.2021 00:22 6,5 C 6,1 C 3,9 C 89 % 1002,1 hPa 0,0 l/m 0 min 0 min 0 W/m 16,1 km/h (3 Bft) 97,87 %
05.05.2021 00:24 6,5 C 6,1 C 3,9 C 89 % 1002,1 hPa 0,0 l/m 0 min 0 min 0 W/m 22,5 km/h (4 Bft) 97,67 %
05.05.2021 00:26 6,5 C 6,1 C 3,9 C 89 % 1002,1 hPa 0,0 l/m 0 min 0 min 0 W/m 16,1 km/h (3 Bft) 98,00 %
05.05.2021 00:28 6,5 C 6,1 C 3,9 C 89 % 1002,1 hPa 0,0 l/m 0 min 0 min 0 W/m 16,1 km/h (3 Bft) 95,83 %
05.05.2021 00:30 6,5 C 6,1 C 3,9 C 88 % 1002,1 hPa 0,0 l/m 0 min 0 min 0 W/m 16,1 km/h (3 Bft) 100,00 %
05.05.2021 00:32 6,5 C 6,1 C 3,9 C 89 % 1002,1 hPa 0,0 l/m 0 min 0 min 0 W/m 9,7 km/h (2 Bft) 95,35 %
05.05.2021 00:34 6,5 C 6,1 C 3,9 C 89 % 1002,1 hPa 0,0 l/m 0 min 0 min 0 W/m 9,7 km/h (2 Bft) 98,00 %
05.05.2021 00:36 6,5 C 6,1 C 3,9 C 89 % 1002,1 hPa 0,0 l/m 0 min 0 min 0 W/m 12,9 km/h (3 Bft) 97,92 %
05.05.2021 00:38 6,5 C 6,1 C 3,9 C 89 % 1002,0 hPa 0,0 l/m 0 min 0 min 0 W/m 12,9 km/h (3 Bft) 95,74 %
05.05.2021 00:40 6,5 C 6,1 C 3,9 C 88 % 1002,0 hPa 0,0 l/m 0 min 0 min 0 W/m 16,1 km/h (3 Bft) 97,87 %
05.05.2021 00:42 6,5 C 6,1 C 3,9 C 88 % 1002,0 hPa 0,0 l/m 0 min 0 min 0 W/m 9,7 km/h (2 Bft) 95,24 %
05.05.2021 00:44 6,6 C 6,1 C 3,9 C 88 % 1002,0 hPa 0,0 l/m 0 min 0 min 0 W/m 12,9 km/h (3 Bft) 98,00 %
05.05.2021 00:46 6,6 C 6,1 C 3,9 C 88 % 1002,0 hPa 0,0 l/m 0 min 0 min 0 W/m 12,9 km/h (3 Bft) 95,83 %
05.05.2021 00:48 6,6 C 6,1 C 3,9 C 88 % 1002,0 hPa 0,0 l/m 0 min 0 min 0 W/m 12,9 km/h (3 Bft) 95,74 %
05.05.2021 00:50 6,6 C 6,1 C 3,9 C 88 % 1002,0 hPa 0,0 l/m 0 min 0 min 0 W/m 12,9 km/h (3 Bft) 97,87 %
05.05.2021 00:52 6,6 C 6,1 C 3,9 C 88 % 1002,1 hPa 0,0 l/m 0 min 0 min 0 W/m 22,5 km/h (4 Bft) 95,35 %
05.05.2021 00:54 6,7 C 6,1 C 3,9 C 88 % 1002,0 hPa 0,0 l/m 0 min 0 min 0 W/m 22,5 km/h (4 Bft) 93,88 %
05.05.2021 00:56 6,8 C 6,1 C 3,9 C 87 % 1002,0 hPa 0,0 l/m 0 min 0 min 0 W/m 19,3 km/h (3 Bft) 95,83 %
05.05.2021 00:58 6,8 C 6,1 C 3,9 C 87 % 1002,0 hPa 0,0 l/m 0 min 0 min 0 W/m 12,9 km/h (3 Bft) 96,00 %
05.05.2021 01:00 6,8 C 6,1 C 3,9 C 87 % 1002,0 hPa 0,0 l/m 0 min 0 min 0 W/m 12,9 km/h (3 Bft) 94,29 %
05.05.2021 01:02 6,9 C 6,1 C 3,9 C 87 % 1002,0 hPa 0,0 l/m 0 min 0 min 0 W/m 12,9 km/h (3 Bft) 94,00 %
05.05.2021 01:04 6,9 C 6,1 C 3,9 C 87 % 1001,9 hPa 0,0 l/m 0 min 0 min 0 W/m 19,3 km/h (3 Bft) 94,44 %
05.05.2021 01:06 6,9 C 6,7 C 4,5 C 87 % 1001,9 hPa 0,0 l/m 0 min 0 min 0 W/m 22,5 km/h (4 Bft) 94,00 %
05.05.2021 01:08 6,9 C 6,7 C 4,5 C 87 % 1001,9 hPa 0,0 l/m 0 min 0 min 0 W/m 22,5 km/h (4 Bft) 91,67 %
05.05.2021 01:10 6,9 C 6,7 C 4,5 C 87 % 1001,9 hPa 0,0 l/m 0 min 0 min 0 W/m 16,1 km/h (3 Bft) 93,62 %
05.05.2021 01:12 7,0 C 6,7 C 4,5 C 87 % 1001,9 hPa 0,0 l/m 0 min 0 min 0 W/m 16,1 km/h (3 Bft) 91,49 %
05.05.2021 01:14 7,0 C 6,7 C 4,5 C 87 % 1002,0 hPa 0,0 l/m 0 min 0 min 0 W/m 16,1 km/h (3 Bft) 91,49 %
05.05.2021 01:16 7,0 C 6,7 C 4,5 C 87 % 1001,9 hPa 0,0 l/m 0 min 0 min 0 W/m 9,7 km/h (2 Bft) 91,49 %
05.05.2021 01:18 7,0 C 6,7 C 4,5 C 87 % 1001,8 hPa 0,0 l/m 0 min 0 min 0 W/m 9,7 km/h (2 Bft) 93,48 %
05.05.2021 01:20 7,0 C 6,7 C 4,5 C 86 % 1001,9 hPa 0,0 l/m 0 min 0 min 0 W/m 12,9 km/h (3 Bft) 92,86 %
05.05.2021 01:22 7,0 C 6,7 C 4,5 C 86 % 1001,8 hPa 0,0 l/m 0 min 0 min 0 W/m 16,1 km/h (3 Bft) 92,11 %
05.05.2021 01:24 7,0 C 6,1 C 4,5 C 86 % 1001,9 hPa 0,0 l/m 0 min 0 min 0 W/m 19,3 km/h (3 Bft) 95,74 %
05.05.2021 01:26 7,0 C 6,1 C 4,5 C 86 % 1001,9 hPa 0,0 l/m 0 min 0 min 0 W/m 22,5 km/h (4 Bft) 94,55 %
05.05.2021 01:28 7,0 C 6,1 C 4,5 C 86 % 1001,9 hPa 0,0 l/m 0 min 0 min 0 W/m 16,1 km/h (3 Bft) 92,31 %
05.05.2021 01:30 7,0 C 6,1 C 4,5 C 86 % 1001,8 hPa 0,0 l/m 0 min 2 min 0 W/m 19,3 km/h (3 Bft) 93,48 %
05.05.2021 01:32 7,0 C 6,1 C 3,9 C 86 % 1001,9 hPa 0,0 l/m 0 min 0 min 0 W/m 19,3 km/h (3 Bft) 89,36 %
05.05.2021 01:34 7,0 C 6,1 C 3,9 C 86 % 1001,8 hPa 0,0 l/m 0 min 0 min 0 W/m 6,4 km/h (2 Bft) 92,86 %
05.05.2021 01:36 6,9 C 6,1 C 4,5 C 86 % 1001,8 hPa 0,0 l/m 0 min 0 min 0 W/m 32,2 km/h (5 Bft) 91,49 %
05.05.2021 01:38 6,9 C 6,1 C 3,9 C 86 % 1001,9 hPa 0,0 l/m 0 min 0 min 0 W/m 16,1 km/h (3 Bft) 94,74 %
05.05.2021 01:40 6,9 C 6,1 C 3,9 C 86 % 1001,8 hPa 0,0 l/m 0 min 0 min 0 W/m 6,4 km/h (2 Bft) 93,62 %
05.05.2021 01:42 6,9 C 6,1 C 3,9 C 86 % 1001,7 hPa 0,0 l/m 0 min 0 min 0 W/m 9,7 km/h (2 Bft) 93,48 %
05.05.2021 01:44 6,9 C 6,1 C 3,9 C 86 % 1001,8 hPa 0,0 l/m 0 min 0 min 0 W/m 25,7 km/h (4 Bft) 92,45 %
05.05.2021 01:46 6,9 C 6,1 C 3,9 C 86 % 1001,8 hPa 0,0 l/m 0 min 0 min 0 W/m 19,3 km/h (3 Bft) 96,00 %
05.05.2021 01:48 6,9 C 6,1 C 3,9 C 85 % 1001,7 hPa 0,0 l/m 0 min 0 min 0 W/m 9,7 km/h (2 Bft) 97,37 %
05.05.2021 01:50 6,9 C 6,1 C 3,9 C 86 % 1001,7 hPa 0,0 l/m 0 min 0 min 0 W/m 12,9 km/h (3 Bft) 97,87 %
05.05.2021 01:52 6,8 C 6,1 C 3,9 C 86 % 1001,7 hPa 0,0 l/m 0 min 0 min 0 W/m 12,9 km/h (3 Bft) 97,83 %
05.05.2021 01:54 6,8 C 6,1 C 3,9 C 86 % 1001,7 hPa 0,0 l/m 0 min 0 min 0 W/m 6,4 km/h (2 Bft) 98,21 %
05.05.2021 01:56 6,8 C 6,1 C 3,9 C 86 % 1001,8 hPa 0,0 l/m 0 min 0 min 0 W/m 9,7 km/h (2 Bft) 100,00 %
05.05.2021 01:58 6,8 C 6,1 C 3,9 C 86 % 1001,7 hPa 0,0 l/m 0 min 0 min 0 W/m 16,1 km/h (3 Bft) 98,00 %
05.05.2021 02:00 6,8 C 6,1 C 3,9 C 86 % 1001,8 hPa 0,0 l/m 0 min 0 min 0 W/m 16,1 km/h (3 Bft) 100,00 %
05.05.2021 02:02 6,8 C 6,1 C 3,9 C 86 % 1001,9 hPa 0,0 l/m 0 min 0 min 0 W/m 22,5 km/h (4 Bft) 96,36 %
05.05.2021 02:04 6,8 C 6,1 C 3,9 C 86 % 1001,7 hPa 0,0 l/m 0 min 0 min 0 W/m 12,9 km/h (3 Bft) 100,00 %
05.05.2021 02:06 6,8 C 6,1 C 3,9 C 86 % 1001,8 hPa 0,0 l/m 0 min 0 min 0 W/m 16,1 km/h (3 Bft) 100,00 %
05.05.2021 02:08 6,7 C 6,1 C 3,9 C 86 % 1001,8 hPa 0,0 l/m 0 min 0 min 0 W/m 22,5 km/h (4 Bft) 100,00 %
05.05.2021 02:10 6,6 C 6,1 C 3,9 C 86 % 1001,8 hPa 0,0 l/m 0 min 0 min 0 W/m 19,3 km/h (3 Bft) 100,00 %
05.05.2021 02:12 6,6 C 6,1 C 4,5 C 86 % 1001,8 hPa 0,0 l/m 0 min 0 min 0 W/m 19,3 km/h (3 Bft) 97,87 %
05.05.2021 02:14 6,6 C 6,1 C 4,5 C 86 % 1001,7 hPa 0,0 l/m 0 min 0 min 0 W/m 12,9 km/h (3 Bft) 72,34 %
05.05.2021 02:16 6,6 C 6,1 C 4,5 C 86 % 1001,7 hPa 0,0 l/m 0 min 0 min 0 W/m 9,7 km/h (2 Bft) 87,04 %
05.05.2021 02:18 6,6 C 6,1 C 4,5 C 86 % 1001,7 hPa 0,0 l/m 0 min 0 min 0 W/m 19,3 km/h (3 Bft) 100,00 %
05.05.2021 02:20 6,6 C 6,1 C 4,5 C 86 % 1001,7 hPa 0,0 l/m 0 min 0 min 0 W/m 6,4 km/h (2 Bft) 100,00 %
05.05.2021 02:22 6,5 C 5,6 C 4,5 C 86 % 1001,7 hPa 0,0 l/m 0 min 0 min 0 W/m 16,1 km/h (3 Bft) 98,21 %
05.05.2021 02:24 6,5 C 5,6 C 4,5 C 86 % 1001,7 hPa 0,0 l/m 0 min 0 min 0 W/m 12,9 km/h (3 Bft) 100,00 %
05.05.2021 02:26 6,5 C 5,6 C 4,5 C 86 % 1001,7 hPa 0,0 l/m 0 min 0 min 0 W/m 19,3 km/h (3 Bft) 100,00 %
05.05.2021 02:28 6,4 C 5,6 C 4,5 C 86 % 1001,7 hPa 0,0 l/m 0 min 0 min 0 W/m 16,1 km/h (3 Bft) 100,00 %
05.05.2021 02:30 6,4 C 5,6 C 4,5 C 86 % 1001,7 hPa 0,0 l/m 0 min 0 min 0 W/m 12,9 km/h (3 Bft) 100,00 %
05.05.2021 02:32 6,4 C 5,6 C 3,9 C 86 % 1001,7 hPa 0,0 l/m 0 min 0 min 0 W/m 16,1 km/h (3 Bft) 100,00 %
05.05.2021 02:34 6,4 C 5,6 C 3,9 C 86 % 1001,7 hPa 0,0 l/m 0 min 0 min 0 W/m 16,1 km/h (3 Bft) 100,00 %
05.05.2021 02:36 6,3 C 5,6 C 3,9 C 86 % 1001,8 hPa 0,0 l/m 0 min 0 min 0 W/m 16,1 km/h (3 Bft) 100,00 %
05.05.2021 02:38 6,3 C 5,6 C 3,9 C 86 % 1001,8 hPa 0,0 l/m 0 min 0 min 0 W/m 12,9 km/h (3 Bft) 100,00 %
05.05.2021 02:40 6,3 C 5,6 C 3,9 C 86 % 1001,9 hPa 0,0 l/m 0 min 0 min 0 W/m 19,3 km/h (3 Bft) 100,00 %
05.05.2021 02:42 6,3 C 5,6 C 3,9 C 86 % 1001,9 hPa 0,0 l/m 0 min 0 min 0 W/m 9,7 km/h (2 Bft) 100,00 %
05.05.2021 02:44 6,2 C 5,6 C 3,9 C 86 % 1001,8 hPa 0,0 l/m 0 min 0 min 0 W/m 9,7 km/h (2 Bft) 100,00 %
05.05.2021 02:46 6,2 C 5,6 C 3,9 C 87 % 1001,9 hPa 0,0 l/m 0 min 0 min 0 W/m 12,9 km/h (3 Bft) 100,00 %
05.05.2021 02:48 6,1 C 5,6 C 3,9 C 87 % 1001,9 hPa 0,0 l/m 0 min 0 min 0 W/m 19,3 km/h (3 Bft) 100,00 %
05.05.2021 02:50 6,1 C 5,6 C 3,9 C 87 % 1001,9 hPa 0,0 l/m 0 min 0 min 0 W/m 9,7 km/h (2 Bft) 100,00 %
05.05.2021 02:52 6,1 C 5,6 C 3,9 C 86 % 1001,8 hPa 0,0 l/m 0 min 0 min 0 W/m 16,1 km/h (3 Bft) 100,00 %
05.05.2021 02:54 6,1 C 5,6 C 3,9 C 87 % 1001,9 hPa 0,0 l/m 0 min 0 min 0 W/m 12,9 km/h (3 Bft) 100,00 %
05.05.2021 02:56 6,1 C 5,6 C 3,9 C 87 % 1001,9 hPa 0,0 l/m 0 min 0 min 0 W/m 6,4 km/h (2 Bft) 100,00 %
05.05.2021 02:58 6,1 C 5,6 C 3,9 C 87 % 1001,9 hPa 0,0 l/m 0 min 0 min 0 W/m 6,4 km/h (2 Bft) 100,00 %
05.05.2021 03:00 6,1 C 5,6 C 3,9 C 87 % 1001,9 hPa 0,0 l/m 0 min 0 min 0 W/m 6,4 km/h (2 Bft) 97,37 %
05.05.2021 03:02 6,1 C 5,6 C 3,9 C 87 % 1001,8 hPa 0,0 l/m 0 min 0 min 0 W/m 6,4 km/h (2 Bft) 97,96 %
05.05.2021 03:04 6,1 C 5,6 C 3,9 C 87 % 1001,8 hPa 0,0 l/m 0 min 0 min 0 W/m 6,4 km/h (2 Bft) 100,00 %
05.05.2021 03:06 6,1 C 5,6 C 3,9 C 87 % 1001,8 hPa 0,0 l/m 0 min 0 min 0 W/m 3,2 km/h (1 Bft) 95,74 %
05.05.2021 03:08 6,1 C 5,6 C 3,9 C 87 % 1001,9 hPa 0,0 l/m 0 min 0 min 0 W/m 12,9 km/h (3 Bft) 100,00 %
05.05.2021 03:10 6,1 C 5,6 C 3,9 C 87 % 1001,8 hPa 0,0 l/m 0 min 0 min 0 W/m 12,9 km/h (3 Bft) 100,00 %
05.05.2021 03:12 6,1 C 5,6 C 3,9 C 87 % 1001,8 hPa 0,0 l/m 0 min 0 min 0 W/m 6,4 km/h (2 Bft) 100,00 %
05.05.2021 03:14 6,1 C 5,6 C 3,9 C 87 % 1001,8 hPa 0,0 l/m 0 min 0 min 0 W/m 6,4 km/h (2 Bft) 97,96 %
05.05.2021 03:16 6,1 C 5,6 C 3,9 C 88 % 1001,7 hPa 0,0 l/m 0 min 0 min 0 W/m 6,4 km/h (2 Bft) 100,00 %
05.05.2021 03:18 6,1 C 5,6 C 4,5 C 88 % 1001,7 hPa 0,0 l/m 0 min 0 min 0 W/m 12,9 km/h (3 Bft) 100,00 %
05.05.2021 03:20 6,1 C 5,6 C 4,5 C 88 % 1001,7 hPa 0,0 l/m 0 min 0 min 0 W/m 16,1 km/h (3 Bft) 98,00 %
05.05.2021 03:22 6,1 C 5,6 C 4,5 C 88 % 1001,7 hPa 0,0 l/m 0 min 0 min 0 W/m 12,9 km/h (3 Bft) 100,00 %
05.05.2021 03:24 6,1 C 5,6 C 4,5 C 88 % 1001,8 hPa 0,0 l/m 0 min 0 min 0 W/m 12,9 km/h (3 Bft) 97,83 %
05.05.2021 03:26 6,1 C 5,6 C 4,5 C 88 % 1001,8 hPa 0,0 l/m 0 min 0 min 0 W/m 9,7 km/h (2 Bft) 100,00 %
05.05.2021 03:28 6,1 C 5,6 C 4,5 C 88 % 1001,8 hPa 0,0 l/m 0 min 0 min 0 W/m 12,9 km/h (3 Bft) 100,00 %
05.05.2021 03:30 6,1 C 5,6 C 4,5 C 88 % 1001,8 hPa 0,0 l/m 0 min 0 min 0 W/m 19,3 km/h (3 Bft) 100,00 %
05.05.2021 03:32 6,1 C 5,6 C 4,5 C 88 % 1001,7 hPa 0,0 l/m 0 min 0 min 0 W/m 19,3 km/h (3 Bft) 100,00 %
05.05.2021 03:34 6,2 C 5,6 C 4,5 C 88 % 1001,9 hPa 0,0 l/m 0 min 0 min 0 W/m 38,6 km/h (5 Bft) 96,00 %
05.05.2021 03:36 6,2 C 5,6 C 4,5 C 88 % 1001,7 hPa 0,0 l/m 0 min 0 min 0 W/m 25,7 km/h (4 Bft) 97,83 %
05.05.2021 03:38 6,2 C 5,6 C 4,5 C 88 % 1001,7 hPa 0,0 l/m 0 min 0 min 0 W/m 19,3 km/h (3 Bft) 97,73 %
05.05.2021 03:40 6,2 C 5,6 C 4,5 C 87 % 1001,6 hPa 0,0 l/m 0 min 2 min 0 W/m 25,7 km/h (4 Bft) 97,87 %
05.05.2021 03:42 6,1 C 5,6 C 4,5 C 87 % 1001,6 hPa 0,0 l/m 0 min 2 min 0 W/m 19,3 km/h (3 Bft) 97,87 %
05.05.2021 03:44 6,1 C 5,6 C 3,9 C 87 % 1001,6 hPa 0,0 l/m 0 min 2 min 0 W/m 16,1 km/h (3 Bft) 96,00 %
05.05.2021 03:46 6,1 C 5,6 C 3,9 C 88 % 1001,5 hPa 0,0 l/m 0 min 0 min 0 W/m 16,1 km/h (3 Bft) 95,92 %
05.05.2021 03:48 6,1 C 5,6 C 3,9 C 88 % 1001,5 hPa 0,0 l/m 0 min 0 min 0 W/m 12,9 km/h (3 Bft) 97,87 %
05.05.2021 03:50 6,0 C 5,6 C 3,9 C 88 % 1001,4 hPa 0,0 l/m 0 min 0 min 0 W/m 12,9 km/h (3 Bft) 97,14 %
05.05.2021 03:52 6,0 C 5,6 C 3,9 C 88 % 1001,4 hPa 0,0 l/m 0 min 0 min 0 W/m 6,4 km/h (2 Bft) 98,21 %
05.05.2021 03:54 6,0 C 5,0 C 3,9 C 88 % 1001,5 hPa 0,0 l/m 0 min 0 min 0 W/m 9,7 km/h (2 Bft) 98,00 %
05.05.2021 03:56 5,9 C 5,0 C 3,9 C 88 % 1001,5 hPa 0,0 l/m 0 min 0 min 0 W/m 12,9 km/h (3 Bft) 97,14 %
05.05.2021 03:58 5,9 C 5,0 C 3,9 C 88 % 1001,5 hPa 0,0 l/m 0 min 0 min 0 W/m 16,1 km/h (3 Bft) 98,18 %
05.05.2021 04:00 5,9 C 5,0 C 3,9 C 88 % 1001,5 hPa 0,0 l/m 0 min 0 min 0 W/m 16,1 km/h (3 Bft) 98,00 %
05.05.2021 04:05 5,8 C 5,0 C 3,9 C 88 % 1001,5 hPa 0,0 l/m 0 min 0 min 0 W/m 16,1 km/h (3 Bft) 95,31 %
05.05.2021 04:06 5,8 C 5,0 C 3,9 C 88 % 1001,5 hPa 0,0 l/m 0 min 0 min 0 W/m 19,3 km/h (3 Bft) 95,83 %
05.05.2021 04:08 5,7 C 5,0 C 3,9 C 88 % 1001,5 hPa 0,0 l/m 0 min 0 min 0 W/m 9,7 km/h (2 Bft) 95,74 %
05.05.2021 04:10 5,6 C 5,0 C 3,9 C 88 % 1001,5 hPa 0,0 l/m 0 min 0 min 0 W/m 19,3 km/h (3 Bft) 95,65 %
05.05.2021 04:12 5,6 C 5,0 C 3,9 C 88 % 1001,6 hPa 0,0 l/m 0 min 0 min 0 W/m 6,4 km/h (2 Bft) 97,87 %
05.05.2021 04:14 5,6 C 5,0 C 3,9 C 88 % 1001,5 hPa 0,0 l/m 0 min 0 min 0 W/m 12,9 km/h (3 Bft) 95,74 %
05.05.2021 04:16 5,5 C 5,0 C 3,9 C 89 % 1001,6 hPa 0,0 l/m 0 min 0 min 0 W/m 12,9 km/h (3 Bft) 100,00 %
05.05.2021 04:18 5,5 C 4,4 C 3,9 C 89 % 1001,6 hPa 0,0 l/m 0 min 0 min 0 W/m 12,9 km/h (3 Bft) 100,00 %
05.05.2021 04:20 5,5 C 4,4 C 3,4 C 89 % 1001,5 hPa 0,0 l/m 0 min 0 min 0 W/m 12,9 km/h (3 Bft) 91,49 %
05.05.2021 04:22 5,5 C 4,4 C 3,4 C 89 % 1001,6 hPa 0,0 l/m 0 min 0 min 0 W/m 9,7 km/h (2 Bft) 97,83 %
05.05.2021 04:24 5,4 C 4,4 C 3,4 C 89 % 1001,6 hPa 0,0 l/m 0 min 0 min 0 W/m 12,9 km/h (3 Bft) 97,87 %
05.05.2021 04:26 5,4 C 4,4 C 3,4 C 89 % 1001,6 hPa 0,0 l/m 0 min 0 min 0 W/m 12,9 km/h (3 Bft) 97,87 %
05.05.2021 04:28 5,4 C 4,4 C 3,4 C 89 % 1001,6 hPa 0,0 l/m 0 min 0 min 0 W/m 12,9 km/h (3 Bft) 95,74 %
05.05.2021 04:30 5,4 C 4,4 C 3,4 C 90 % 1001,6 hPa 0,0 l/m 0 min 0 min 0 W/m 3,2 km/h (1 Bft) 97,87 %
05.05.2021 04:32 5,4 C 4,4 C 3,4 C 90 % 1001,6 hPa 0,0 l/m 0 min 0 min 0 W/m 6,4 km/h (2 Bft) 95,74 %
05.05.2021 04:34 5,3 C 4,4 C 3,4 C 90 % 1001,6 hPa 0,0 l/m 0 min 0 min 0 W/m 3,2 km/h (1 Bft) 97,83 %
05.05.2021 04:36 5,3 C 4,4 C 3,4 C 90 % 1001,6 hPa 0,0 l/m 0 min 0 min 0 W/m 6,4 km/h (2 Bft) 93,62 %
05.05.2021 04:38 5,3 C 4,4 C 3,4 C 90 % 1001,6 hPa 0,0 l/m 0 min 0 min 0 W/m 12,9 km/h (3 Bft) 59,57 %
05.05.2021 04:40 5,2 C 4,4 C 3,4 C 90 % 1001,6 hPa 0,0 l/m 0 min 0 min 0 W/m 16,1 km/h (3 Bft) 95,74 %
05.05.2021 04:42 5,2 C 4,4 C 3,4 C 90 % 1001,5 hPa 0,0 l/m 0 min 0 min 0 W/m 9,7 km/h (2 Bft) 97,83 %
05.05.2021 04:44 5,2 C 4,4 C 3,4 C 90 % 1001,6 hPa 0,0 l/m 0 min 0 min 0 W/m 6,4 km/h (2 Bft) 97,87 %
05.05.2021 04:46 5,2 C 4,4 C 3,4 C 90 % 1001,6 hPa 0,0 l/m 0 min 0 min 0 W/m 6,4 km/h (2 Bft) 97,87 %
05.05.2021 04:48 5,1 C 4,4 C 3,4 C 90 % 1001,6 hPa 0,0 l/m 0 min 0 min 0 W/m 12,9 km/h (3 Bft) 97,87 %
05.05.2021 04:50 5,1 C 4,4 C 3,4 C 90 % 1001,6 hPa 0,0 l/m 0 min 0 min 0 W/m 3,2 km/h (1 Bft) 97,87 %
05.05.2021 04:52 5,1 C 4,4 C 3,4 C 90 % 1001,6 hPa 0,0 l/m 0 min 0 min 0 W/m 12,9 km/h (3 Bft) 97,87 %
05.05.2021 04:54 5,1 C 4,4 C 3,4 C 91 % 1001,7 hPa 0,0 l/m 0 min 0 min 0 W/m 12,9 km/h (3 Bft) 95,65 %
05.05.2021 04:56 5,1 C 4,4 C 3,4 C 91 % 1001,7 hPa 0,0 l/m 0 min 0 min 0 W/m 6,4 km/h (2 Bft) 100,00 %
05.05.2021 04:58 5,1 C 4,4 C 3,4 C 91 % 1001,7 hPa 0,0 l/m 0 min 0 min 0 W/m 6,4 km/h (2 Bft) 100,00 %
05.05.2021 05:00 5,1 C 4,4 C 3,4 C 91 % 1001,6 hPa 0,0 l/m 0 min 0 min 0 W/m 6,4 km/h (2 Bft) 100,00 %
05.05.2021 05:02 5,1 C 4,4 C 3,4 C 91 % 1001,7 hPa 0,0 l/m 0 min 0 min 0 W/m 12,9 km/h (3 Bft) 97,87 %
05.05.2021 05:04 5,1 C 4,4 C 3,9 C 91 % 1001,7 hPa 0,0 l/m 0 min 0 min 0 W/m 9,7 km/h (2 Bft) 100,00 %
05.05.2021 05:06 5,2 C 4,4 C 3,9 C 91 % 1001,7 hPa 0,0 l/m 0 min 0 min 0 W/m 12,9 km/h (3 Bft) 100,00 %
05.05.2021 05:08 5,2 C 4,4 C 3,9 C 91 % 1001,6 hPa 0,0 l/m 0 min 0 min 0 W/m 12,9 km/h (3 Bft) 100,00 %
05.05.2021 05:10 5,2 C 4,4 C 3,9 C 91 % 1001,7 hPa 0,0 l/m 0 min 0 min 0 W/m 12,9 km/h (3 Bft) 100,00 %
05.05.2021 05:12 5,2 C 4,4 C 3,9 C 91 % 1001,7 hPa 0,0 l/m 0 min 0 min 0 W/m 6,4 km/h (2 Bft) 100,00 %
05.05.2021 05:14 5,2 C 4,4 C 3,9 C 91 % 1001,6 hPa 0,0 l/m 0 min 0 min 0 W/m 6,4 km/h (2 Bft) 97,87 %
05.05.2021 05:16 5,2 C 4,4 C 3,9 C 91 % 1001,6 hPa 0,0 l/m 0 min 0 min 0 W/m 9,7 km/h (2 Bft) 100,00 %
05.05.2021 05:18 5,2 C 4,4 C 3,9 C 91 % 1001,6 hPa 0,0 l/m 0 min 0 min 0 W/m 6,4 km/h (2 Bft) 97,37 %
05.05.2021 05:20 5,1 C 4,4 C 3,4 C 91 % 1001,6 hPa 0,0 l/m 0 min 0 min 0 W/m 6,4 km/h (2 Bft) 97,83 %
05.05.2021 05:22 5,1 C 4,4 C 3,4 C 91 % 1001,6 hPa 0,0 l/m 0 min 0 min 0 W/m 6,4 km/h (2 Bft) 100,00 %
05.05.2021 05:24 5,1 C 4,4 C 3,9 C 91 % 1001,6 hPa 0,0 l/m 0 min 0 min 0 W/m 12,9 km/h (3 Bft) 100,00 %
05.05.2021 05:26 5,1 C 4,4 C 3,4 C 91 % 1001,6 hPa 0,0 l/m 0 min 0 min 0 W/m 16,1 km/h (3 Bft) 100,00 %
05.05.2021 05:28 5,1 C 4,4 C 3,4 C 91 % 1001,7 hPa 0,0 l/m 0 min 0 min 0 W/m 16,1 km/h (3 Bft) 97,87 %
05.05.2021 05:30 5,1 C 4,4 C 3,4 C 91 % 1001,6 hPa 0,0 l/m 0 min 0 min 0 W/m 19,3 km/h (3 Bft) 98,15 %
05.05.2021 05:32 5,0 C 4,4 C 3,4 C 91 % 1001,6 hPa 0,0 l/m 0 min 0 min 0 W/m 16,1 km/h (3 Bft) 100,00 %
05.05.2021 05:34 5,1 C 4,4 C 3,9 C 91 % 1001,6 hPa 0,0 l/m 0 min 0 min 0 W/m 3,2 km/h (1 Bft) 97,37 %
05.05.2021 05:36 5,1 C 4,4 C 3,9 C 91 % 1001,7 hPa 0,0 l/m 0 min 0 min 0 W/m 19,3 km/h (3 Bft) 100,00 %
05.05.2021 05:38 5,1 C 4,4 C 3,9 C 91 % 1001,6 hPa 0,0 l/m 0 min 0 min 0 W/m 12,9 km/h (3 Bft) 97,87 %
05.05.2021 05:40 5,1 C 4,4 C 3,9 C 91 % 1001,6 hPa 0,0 l/m 0 min 0 min 0 W/m 9,7 km/h (2 Bft) 100,00 %
05.05.2021 05:42 5,1 C 4,4 C 3,9 C 91 % 1001,6 hPa 0,0 l/m 0 min 0 min 0 W/m 19,3 km/h (3 Bft) 98,15 %
05.05.2021 05:44 5,1 C 4,4 C 3,9 C 91 % 1001,6 hPa 0,0 l/m 0 min 0 min 0 W/m 19,3 km/h (3 Bft) 100,00 %
05.05.2021 05:46 5,1 C 4,4 C 3,9 C 91 % 1001,7 hPa 0,0 l/m 0 min 0 min 0 W/m 6,4 km/h (2 Bft) 97,92 %
05.05.2021 05:48 5,1 C 4,4 C 3,9 C 91 % 1001,7 hPa 0,0 l/m 0 min 0 min 0 W/m 12,9 km/h (3 Bft) 100,00 %
05.05.2021 05:50 5,1 C 4,4 C 3,9 C 91 % 1001,7 hPa 0,0 l/m 0 min 0 min 0 W/m 16,1 km/h (3 Bft) 98,18 %
05.05.2021 05:52 5,1 C 4,4 C 3,9 C 91 % 1001,8 hPa 0,0 l/m 0 min 0 min 0 W/m 9,7 km/h (2 Bft) 100,00 %
05.05.2021 05:54 5,1 C 5,0 C 3,9 C 91 % 1001,7 hPa 0,0 l/m 0 min 0 min 0 W/m 16,1 km/h (3 Bft) 97,87 %
05.05.2021 05:56 5,2 C 5,0 C 3,9 C 91 % 1001,9 hPa 0,0 l/m 0 min 0 min 0 W/m 16,1 km/h (3 Bft) 97,87 %
05.05.2021 05:58 5,2 C 5,0 C 3,9 C 91 % 1001,8 hPa 0,0 l/m 0 min 0 min 0 W/m 19,3 km/h (3 Bft) 98,18 %
05.05.2021 06:00 5,3 C 5,0 C 3,9 C 91 % 1001,9 hPa 0,0 l/m 0 min 0 min 0 W/m 22,5 km/h (4 Bft) 97,37 %
05.05.2021 06:02 5,3 C 5,0 C 3,9 C 91 % 1001,8 hPa 0,0 l/m 0 min 0 min 0 W/m 6,4 km/h (2 Bft) 97,92 %
05.05.2021 06:04 5,3 C 5,0 C 3,9 C 91 % 1001,9 hPa 0,0 l/m 0 min 0 min 0 W/m 6,4 km/h (2 Bft) 95,74 %
05.05.2021 06:08 5,3 C 5,0 C 3,9 C 91 % 1002,0 hPa 0,0 l/m 0 min 0 min 4 W/m 16,1 km/h (3 Bft) 98,02 %
05.05.2021 06:10 5,4 C 5,0 C 3,9 C 91 % 1002,0 hPa 0,0 l/m 0 min 0 min 5 W/m 9,7 km/h (2 Bft) 97,87 %
05.05.2021 06:12 5,4 C 5,0 C 3,9 C 91 % 1002,0 hPa 0,0 l/m 0 min 0 min 6 W/m 9,7 km/h (2 Bft) 97,37 %
05.05.2021 06:14 5,4 C 5,0 C 3,9 C 91 % 1001,9 hPa 0,0 l/m 0 min 0 min 5 W/m 16,1 km/h (3 Bft) 97,92 %
05.05.2021 06:16 5,4 C 5,0 C 3,9 C 91 % 1002,0 hPa 0,0 l/m 0 min 0 min 5 W/m 12,9 km/h (3 Bft) 97,87 %
05.05.2021 06:18 5,4 C 5,0 C 3,9 C 91 % 1001,9 hPa 0,0 l/m 0 min 0 min 5 W/m 19,3 km/h (3 Bft) 97,83 %
05.05.2021 06:20 5,4 C 5,0 C 3,9 C 91 % 1002,0 hPa 0,0 l/m 0 min 0 min 6 W/m 16,1 km/h (3 Bft) 95,74 %
05.05.2021 06:22 5,4 C 5,0 C 3,9 C 91 % 1002,0 hPa 0,0 l/m 0 min 0 min 8 W/m 12,9 km/h (3 Bft) 98,18 %
05.05.2021 06:24 5,4 C 5,0 C 3,9 C 91 % 1002,0 hPa 0,0 l/m 0 min 0 min 10 W/m 9,7 km/h (2 Bft) 94,87 %
05.05.2021 06:26 5,4 C 5,0 C 3,9 C 91 % 1002,0 hPa 0,0 l/m 0 min 0 min 12 W/m 9,7 km/h (2 Bft) 95,74 %
05.05.2021 06:28 5,4 C 5,0 C 3,9 C 91 % 1002,0 hPa 0,0 l/m 0 min 0 min 15 W/m 9,7 km/h (2 Bft) 95,74 %
05.05.2021 06:30 5,4 C 5,0 C 3,9 C 91 % 1002,0 hPa 0,0 l/m 0 min 0 min 16 W/m 12,9 km/h (3 Bft) 97,83 %
05.05.2021 06:32 5,4 C 5,0 C 3,9 C 91 % 1002,1 hPa 0,0 l/m 0 min 0 min 19 W/m 16,1 km/h (3 Bft) 95,74 %
05.05.2021 06:34 5,4 C 5,0 C 3,9 C 91 % 1002,1 hPa 0,0 l/m 0 min 0 min 23 W/m 16,1 km/h (3 Bft) 98,18 %
05.05.2021 06:36 5,4 C 5,0 C 4,5 C 91 % 1002,1 hPa 0,0 l/m 0 min 0 min 26 W/m 6,4 km/h (2 Bft) 94,74 %
05.05.2021 06:38 5,4 C 5,0 C 4,5 C 91 % 1002,1 hPa 0,0 l/m 0 min 0 min 23 W/m 12,9 km/h (3 Bft) 97,87 %
05.05.2021 06:40 5,5 C 5,0 C 4,5 C 91 % 1002,2 hPa 0,0 l/m 0 min 0 min 19 W/m 9,7 km/h (2 Bft) 97,87 %
05.05.2021 06:42 5,5 C 5,0 C 4,5 C 91 % 1002,2 hPa 0,0 l/m 0 min 0 min 19 W/m 12,9 km/h (3 Bft) 97,87 %
05.05.2021 06:44 5,5 C 5,0 C 4,5 C 91 % 1002,2 hPa 0,0 l/m 0 min 0 min 14 W/m 9,7 km/h (2 Bft) 97,87 %
05.05.2021 06:46 5,5 C 5,0 C 4,5 C 91 % 1002,1 hPa 0,0 l/m 0 min 0 min 11 W/m 9,7 km/h (2 Bft) 96,36 %
05.05.2021 06:48 5,5 C 5,0 C 4,5 C 91 % 1002,2 hPa 0,0 l/m 0 min 0 min 6 W/m 6,4 km/h (2 Bft) 97,37 %
05.05.2021 06:50 5,5 C 5,0 C 3,9 C 91 % 1002,2 hPa 0,0 l/m 0 min 2 min 0 W/m 6,4 km/h (2 Bft) 97,87 %
05.05.2021 06:52 5,5 C 5,0 C 3,9 C 91 % 1002,4 hPa 0,2 l/m 0 min 2 min 0 W/m 6,4 km/h (2 Bft) 97,87 %
05.05.2021 06:54 5,5 C 5,0 C 3,9 C 91 % 1002,4 hPa 0,0 l/m 0 min 2 min 0 W/m 12,9 km/h (3 Bft) 95,74 %
05.05.2021 06:56 5,5 C 5,0 C 3,9 C 91 % 1002,4 hPa 0,0 l/m 0 min 2 min 5 W/m 12,9 km/h (3 Bft) 100,00 %
05.05.2021 06:58 5,5 C 5,0 C 3,9 C 91 % 1002,5 hPa 0,0 l/m 0 min 2 min 1 W/m 6,4 km/h (2 Bft) 97,87 %
05.05.2021 07:00 5,5 C 5,0 C 3,9 C 91 % 1002,5 hPa 0,0 l/m 0 min 2 min 5 W/m 6,4 km/h (2 Bft) 97,87 %
05.05.2021 07:02 5,5 C 5,0 C 3,9 C 92 % 1002,4 hPa 0,0 l/m 0 min 0 min 7 W/m 6,4 km/h (2 Bft) 97,87 %
05.05.2021 07:04 5,5 C 5,0 C 3,9 C 92 % 1002,4 hPa 0,0 l/m 0 min 0 min 7 W/m 3,2 km/h (1 Bft) 96,30 %
05.05.2021 07:06 5,5 C 5,0 C 3,9 C 92 % 1002,5 hPa 0,0 l/m 0 min 0 min 10 W/m 9,7 km/h (2 Bft) 97,37 %
05.05.2021 07:08 5,5 C 5,0 C 3,9 C 92 % 1002,5 hPa 0,0 l/m 0 min 0 min 7 W/m 3,2 km/h (1 Bft) 95,74 %
05.05.2021 07:10 5,5 C 5,0 C 3,9 C 92 % 1002,5 hPa 0,0 l/m 0 min 0 min 7 W/m 12,9 km/h (3 Bft) 95,74 %
05.05.2021 07:12 5,5 C 5,0 C 3,9 C 92 % 1002,5 hPa 0,0 l/m 0 min 0 min 12 W/m 9,7 km/h (2 Bft) 95,74 %
05.05.2021 07:14 5,5 C 5,0 C 3,9 C 92 % 1002,6 hPa 0,0 l/m 0 min 0 min 12 W/m 3,2 km/h (1 Bft) 95,83 %
05.05.2021 07:16 5,5 C 5,0 C 3,9 C 92 % 1002,6 hPa 0,0 l/m 0 min 0 min 7 W/m 3,2 km/h (1 Bft) 91,30 %
05.05.2021 07:18 5,5 C 5,0 C 3,9 C 92 % 1002,6 hPa 0,0 l/m 0 min 0 min 14 W/m 3,2 km/h (1 Bft) 96,36 %
05.05.2021 07:20 5,5 C 5,0 C 3,9 C 92 % 1002,7 hPa 0,0 l/m 0 min 0 min 19 W/m 9,7 km/h (2 Bft) 94,74 %
05.05.2021 07:22 5,5 C 5,0 C 3,9 C 92 % 1002,6 hPa 0,0 l/m 0 min 0 min 31 W/m 3,2 km/h (1 Bft) 93,75 %
05.05.2021 07:24 5,5 C 5,0 C 3,9 C 92 % 1002,6 hPa 0,0 l/m 0 min 0 min 28 W/m 6,4 km/h (2 Bft) 95,74 %
05.05.2021 07:26 5,5 C 5,0 C 3,9 C 92 % 1002,6 hPa 0,0 l/m 0 min 0 min 24 W/m 12,9 km/h (3 Bft) 95,74 %
05.05.2021 07:28 5,5 C 5,0 C 3,9 C 92 % 1002,6 hPa 0,0 l/m 0 min 0 min 29 W/m 12,9 km/h (3 Bft) 94,44 %
05.05.2021 07:30 5,5 C 5,0 C 3,9 C 92 % 1002,7 hPa 0,0 l/m 0 min 0 min 33 W/m 6,4 km/h (2 Bft) 97,37 %
05.05.2021 07:32 5,5 C 5,0 C 3,9 C 92 % 1002,7 hPa 0,0 l/m 0 min 0 min 37 W/m 12,9 km/h (3 Bft) 95,83 %
05.05.2021 07:34 5,5 C 5,0 C 3,9 C 92 % 1002,7 hPa 0,0 l/m 0 min 0 min 39 W/m 12,9 km/h (3 Bft) 93,62 %
05.05.2021 07:36 5,5 C 5,0 C 3,9 C 92 % 1002,7 hPa 0,0 l/m 0 min 0 min 41 W/m 6,4 km/h (2 Bft) 93,62 %
05.05.2021 07:38 5,6 C 5,0 C 3,9 C 92 % 1002,7 hPa 0,0 l/m 0 min 0 min 52 W/m 6,4 km/h (2 Bft) 96,30 %
05.05.2021 07:40 5,6 C 5,6 C 3,9 C 92 % 1002,8 hPa 0,0 l/m 0 min 0 min 59 W/m 9,7 km/h (2 Bft) 95,74 %
05.05.2021 07:42 5,6 C 5,6 C 4,5 C 92 % 1002,7 hPa 0,0 l/m 0 min 0 min 46 W/m 19,3 km/h (3 Bft) 94,74 %
05.05.2021 07:44 5,6 C 5,6 C 4,5 C 92 % 1002,7 hPa 0,0 l/m 0 min 0 min 55 W/m 12,9 km/h (3 Bft) 95,83 %
05.05.2021 07:46 5,7 C 5,6 C 4,5 C 92 % 1002,8 hPa 0,0 l/m 0 min 0 min 72 W/m 25,7 km/h (4 Bft) 95,74 %
05.05.2021 07:48 5,7 C 5,6 C 4,5 C 92 % 1002,7 hPa 0,0 l/m 0 min 0 min 82 W/m 9,7 km/h (2 Bft) 94,55 %
05.05.2021 07:50 5,8 C 5,6 C 4,5 C 92 % 1002,7 hPa 0,0 l/m 0 min 0 min 80 W/m 19,3 km/h (3 Bft) 94,74 %
05.05.2021 07:52 5,8 C 5,6 C 4,5 C 92 % 1002,7 hPa 0,0 l/m 0 min 0 min 65 W/m 6,4 km/h (2 Bft) 93,62 %
05.05.2021 07:54 5,9 C 5,6 C 4,5 C 92 % 1002,7 hPa 0,0 l/m 0 min 0 min 35 W/m 16,1 km/h (3 Bft) 95,74 %
05.05.2021 07:56 5,9 C 5,6 C 4,5 C 92 % 1002,8 hPa 0,2 l/m 0 min 2 min 29 W/m 12,9 km/h (3 Bft) 96,36 %
05.05.2021 07:58 5,9 C 5,6 C 4,5 C 92 % 1002,8 hPa 0,0 l/m 0 min 2 min 30 W/m 12,9 km/h (3 Bft) 95,74 %
05.05.2021 08:00 5,8 C 5,0 C 3,9 C 92 % 1002,9 hPa 0,6 l/m 0 min 2 min 15 W/m 12,9 km/h (3 Bft) 94,74 %
05.05.2021 08:02 5,6 C 4,4 C 3,4 C 92 % 1002,8 hPa 0,8 l/m 0 min 2 min 12 W/m 19,3 km/h (3 Bft) 91,67 %
05.05.2021 08:04 5,4 C 3,9 C 2,8 C 91 % 1002,9 hPa 0,4 l/m 0 min 2 min 14 W/m 19,3 km/h (3 Bft) 97,83 %
05.05.2021 08:06 5,3 C 3,9 C 2,8 C 91 % 1002,8 hPa 0,0 l/m 0 min 2 min 15 W/m 12,9 km/h (3 Bft) 98,18 %
05.05.2021 08:08 5,2 C 3,9 C 3,4 C 92 % 1002,7 hPa 0,2 l/m 0 min 2 min 22 W/m 12,9 km/h (3 Bft) 94,74 %
05.05.2021 08:10 5,2 C 3,9 C 3,4 C 92 % 1002,8 hPa 0,0 l/m 0 min 0 min 27 W/m 12,9 km/h (3 Bft) 95,74 %
05.05.2021 08:12 5,2 C 4,4 C 3,4 C 92 % 1002,8 hPa 0,0 l/m 0 min 0 min 28 W/m 12,9 km/h (3 Bft) 97,92 %
05.05.2021 08:14 5,3 C 4,4 C 3,4 C 93 % 1002,8 hPa 0,0 l/m 0 min 0 min 23 W/m 12,9 km/h (3 Bft) 97,83 %
05.05.2021 08:16 5,3 C 4,4 C 3,4 C 93 % 1002,9 hPa 0,0 l/m 0 min 0 min 30 W/m 6,4 km/h (2 Bft) 97,87 %
05.05.2021 08:18 5,4 C 4,4 C 3,4 C 93 % 1002,8 hPa 0,0 l/m 0 min 0 min 43 W/m 16,1 km/h (3 Bft) 94,55 %
05.05.2021 08:20 5,4 C 5,0 C 3,9 C 93 % 1002,8 hPa 0,0 l/m 0 min 0 min 62 W/m 12,9 km/h (3 Bft) 97,37 %
05.05.2021 08:22 5,4 C 5,0 C 3,9 C 94 % 1002,8 hPa 0,0 l/m 0 min 0 min 73 W/m 12,9 km/h (3 Bft) 97,87 %
05.05.2021 08:24 5,5 C 5,0 C 3,9 C 94 % 1002,8 hPa 0,0 l/m 0 min 0 min 72 W/m 16,1 km/h (3 Bft) 97,87 %
05.05.2021 08:26 5,5 C 5,0 C 3,9 C 94 % 1002,9 hPa 0,0 l/m 0 min 0 min 76 W/m 12,9 km/h (3 Bft) 97,83 %
05.05.2021 08:28 5,6 C 5,0 C 3,9 C 94 % 1002,9 hPa 0,0 l/m 0 min 0 min 75 W/m 22,5 km/h (4 Bft) 95,74 %
05.05.2021 08:30 5,7 C 5,0 C 3,9 C 94 % 1002,9 hPa 0,0 l/m 0 min 0 min 90 W/m 22,5 km/h (4 Bft) 97,92 %
05.05.2021 08:32 5,8 C 5,6 C 3,9 C 94 % 1002,9 hPa 0,0 l/m 0 min 0 min 100 W/m 25,7 km/h (4 Bft) 95,74 %
05.05.2021 08:34 5,8 C 5,6 C 3,9 C 94 % 1002,9 hPa 0,0 l/m 0 min 0 min 119 W/m 16,1 km/h (3 Bft) 96,36 %
05.05.2021 08:36 5,8 C 5,6 C 3,9 C 94 % 1002,9 hPa 0,0 l/m 0 min 0 min 127 W/m 19,3 km/h (3 Bft) 97,37 %
05.05.2021 08:38 5,9 C 5,6 C 3,9 C 93 % 1003,1 hPa 0,0 l/m 0 min 0 min 102 W/m 12,9 km/h (3 Bft) 95,65 %
05.05.2021 08:40 5,9 C 5,6 C 4,5 C 93 % 1003,1 hPa 0,0 l/m 0 min 0 min 108 W/m 19,3 km/h (3 Bft) 97,87 %
05.05.2021 08:42 5,9 C 5,6 C 3,9 C 93 % 1003,2 hPa 0,0 l/m 0 min 0 min 88 W/m 12,9 km/h (3 Bft) 95,74 %
05.05.2021 08:44 5,8 C 5,6 C 3,9 C 93 % 1003,2 hPa 0,0 l/m 0 min 0 min 84 W/m 12,9 km/h (3 Bft) 97,92 %
05.05.2021 08:46 5,8 C 5,6 C 3,9 C 93 % 1003,2 hPa 0,0 l/m 0 min 0 min 75 W/m 12,9 km/h (3 Bft) 97,87 %
05.05.2021 08:47 5,8 C 5,6 C 3,9 C 93 % 1003,3 hPa 0,0 l/m 0 min 1 min 61 W/m 12,9 km/h (3 Bft) 95,65 %
05.05.2021 08:50 5,8 C 5,6 C 3,9 C 93 % 1003,3 hPa 0,0 l/m 0 min 3 min 54 W/m 12,9 km/h (3 Bft) 97,87 %
05.05.2021 08:52 5,8 C 5,0 C 3,9 C 93 % 1003,3 hPa 0,0 l/m 0 min 2 min 50 W/m 9,7 km/h (2 Bft) 97,87 %
05.05.2021 08:54 5,8 C 5,0 C 3,9 C 93 % 1003,3 hPa 0,0 l/m 0 min 2 min 52 W/m 12,9 km/h (3 Bft) 97,87 %
05.05.2021 08:56 5,8 C 5,0 C 3,9 C 93 % 1003,3 hPa 0,0 l/m 0 min 2 min 57 W/m 12,9 km/h (3 Bft) 95,74 %
05.05.2021 08:58 5,8 C 5,0 C 3,9 C 93 % 1003,3 hPa 0,0 l/m 0 min 2 min 73 W/m 12,9 km/h (3 Bft) 95,74 %
05.05.2021 09:00 5,8 C 5,0 C 3,9 C 93 % 1003,3 hPa 0,0 l/m 0 min 2 min 80 W/m 12,9 km/h (3 Bft) 97,83 %
05.05.2021 09:02 5,8 C 5,6 C 3,9 C 93 % 1003,3 hPa 0,0 l/m 0 min 0 min 77 W/m 16,1 km/h (3 Bft) 95,74 %
05.05.2021 09:04 5,8 C 5,6 C 3,9 C 93 % 1003,4 hPa 0,0 l/m 0 min 2 min 86 W/m 12,9 km/h (3 Bft) 100,00 %
05.05.2021 09:06 5,8 C 5,6 C 3,9 C 93 % 1003,4 hPa 0,0 l/m 0 min 2 min 92 W/m 6,4 km/h (2 Bft) 100,00 %
05.05.2021 09:08 5,8 C 5,6 C 3,9 C 93 % 1003,4 hPa 0,0 l/m 0 min 2 min 73 W/m 16,1 km/h (3 Bft) 100,00 %
05.05.2021 09:10 5,8 C 5,6 C 3,9 C 93 % 1003,4 hPa 0,0 l/m 0 min 0 min 51 W/m 16,1 km/h (3 Bft) 100,00 %
05.05.2021 09:12 5,8 C 5,6 C 3,9 C 93 % 1003,4 hPa 0,0 l/m 0 min 0 min 34 W/m 12,9 km/h (3 Bft) 100,00 %
05.05.2021 09:14 5,8 C 5,0 C 3,9 C 93 % 1003,4 hPa 0,0 l/m 0 min 2 min 52 W/m 19,3 km/h (3 Bft) 100,00 %
05.05.2021 09:16 5,8 C 5,0 C 3,9 C 93 % 1003,4 hPa 0,0 l/m 0 min 2 min 63 W/m 25,7 km/h (4 Bft) 100,00 %
05.05.2021 09:18 5,8 C 5,6 C 3,9 C 93 % 1003,4 hPa 0,0 l/m 0 min 0 min 60 W/m 16,1 km/h (3 Bft) 97,87 %
05.05.2021 09:20 5,8 C 5,0 C 3,9 C 93 % 1003,5 hPa 0,0 l/m 0 min 2 min 67 W/m 16,1 km/h (3 Bft) 100,00 %
05.05.2021 09:22 5,8 C 5,0 C 3,9 C 93 % 1003,5 hPa 0,0 l/m 0 min 2 min 91 W/m 25,7 km/h (4 Bft) 100,00 %
05.05.2021 09:24 5,7 C 5,0 C 3,9 C 92 % 1003,6 hPa 0,0 l/m 0 min 2 min 112 W/m 22,5 km/h (4 Bft) 100,00 %
05.05.2021 09:26 5,6 C 5,0 C 3,9 C 92 % 1003,6 hPa 0,0 l/m 0 min 2 min 107 W/m 29,0 km/h (5 Bft) 100,00 %
05.05.2021 09:28 5,5 C 5,0 C 3,9 C 92 % 1003,6 hPa 0,2 l/m 0 min 2 min 107 W/m 16,1 km/h (3 Bft) 100,00 %
05.05.2021 09:30 5,4 C 5,0 C 3,4 C 92 % 1003,6 hPa 0,0 l/m 0 min 2 min 132 W/m 25,7 km/h (4 Bft) 100,00 %
05.05.2021 09:32 5,4 C 5,0 C 3,4 C 92 % 1003,6 hPa 0,0 l/m 0 min 2 min 147 W/m 25,7 km/h (4 Bft) 100,00 %
05.05.2021 09:34 5,3 C 5,0 C 3,4 C 92 % 1003,6 hPa 0,0 l/m 0 min 2 min 147 W/m 29,0 km/h (5 Bft) 100,00 %
05.05.2021 09:36 5,3 C 5,0 C 3,4 C 92 % 1003,6 hPa 0,0 l/m 0 min 2 min 145 W/m 22,5 km/h (4 Bft) 100,00 %
05.05.2021 09:38 5,3 C 5,0 C 3,4 C 92 % 1003,8 hPa 0,0 l/m 0 min 0 min 136 W/m 25,7 km/h (4 Bft) 100,00 %
05.05.2021 09:40 5,3 C 5,0 C 3,4 C 92 % 1003,7 hPa 0,0 l/m 0 min 0 min 154 W/m 25,7 km/h (4 Bft) 100,00 %
05.05.2021 09:42 5,3 C 5,0 C 3,9 C 92 % 1003,7 hPa 0,0 l/m 0 min 0 min 155 W/m 19,3 km/h (3 Bft) 100,00 %
05.05.2021 09:44 5,3 C 5,0 C 3,9 C 92 % 1003,7 hPa 0,0 l/m 0 min 0 min 170 W/m 16,1 km/h (3 Bft) 100,00 %
05.05.2021 09:46 5,3 C 5,0 C 3,9 C 92 % 1003,8 hPa 0,0 l/m 0 min 0 min 173 W/m 19,3 km/h (3 Bft) 100,00 %
05.05.2021 09:48 5,3 C 5,0 C 3,9 C 92 % 1003,8 hPa 0,0 l/m 0 min 0 min 139 W/m 19,3 km/h (3 Bft) 100,00 %
05.05.2021 09:50 5,3 C 5,0 C 3,9 C 92 % 1003,8 hPa 0,0 l/m 0 min 2 min 131 W/m 19,3 km/h (3 Bft) 100,00 %
05.05.2021 09:52 5,3 C 5,0 C 3,9 C 92 % 1003,9 hPa 0,0 l/m 0 min 2 min 131 W/m 25,7 km/h (4 Bft) 97,87 %
05.05.2021 09:54 5,3 C 5,0 C 3,9 C 92 % 1003,9 hPa 0,0 l/m 0 min 2 min 112 W/m 29,0 km/h (5 Bft) 100,00 %
05.05.2021 09:56 5,2 C 5,0 C 3,9 C 92 % 1004,0 hPa 0,0 l/m 0 min 2 min 128 W/m 12,9 km/h (3 Bft) 97,87 %
05.05.2021 09:58 5,2 C 5,0 C 3,9 C 93 % 1004,0 hPa 0,0 l/m 0 min 2 min 154 W/m 19,3 km/h (3 Bft) 97,87 %
05.05.2021 10:00 5,2 C 5,0 C 3,9 C 93 % 1004,1 hPa 0,0 l/m 0 min 2 min 151 W/m 29,0 km/h (5 Bft) 100,00 %
05.05.2021 10:02 5,1 C 5,0 C 3,4 C 93 % 1004,1 hPa 0,0 l/m 0 min 2 min 106 W/m 19,3 km/h (3 Bft) 100,00 %
05.05.2021 10:04 5,1 C 5,0 C 3,4 C 93 % 1004,1 hPa 0,0 l/m 0 min 2 min 107 W/m 19,3 km/h (3 Bft) 100,00 %
05.05.2021 10:06 5,1 C 5,0 C 3,9 C 93 % 1004,1 hPa 0,0 l/m 0 min 2 min 127 W/m 16,1 km/h (3 Bft) 100,00 %
05.05.2021 10:08 5,2 C 5,0 C 3,9 C 93 % 1004,1 hPa 0,0 l/m 0 min 2 min 163 W/m 12,9 km/h (3 Bft) 100,00 %
05.05.2021 10:10 5,2 C 5,0 C 3,9 C 94 % 1004,1 hPa 0,0 l/m 0 min 0 min 157 W/m 19,3 km/h (3 Bft) 100,00 %
05.05.2021 10:12 5,3 C 5,6 C 4,5 C 94 % 1004,1 hPa 0,0 l/m 0 min 0 min 240 W/m 16,1 km/h (3 Bft) 100,00 %
05.05.2021 10:14 5,4 C 6,1 C 5,0 C 94 % 1004,1 hPa 0,0 l/m 0 min 2 min 257 W/m 12,9 km/h (3 Bft) 100,00 %
05.05.2021 10:16 5,4 C 6,1 C 5,0 C 94 % 1004,1 hPa 0,0 l/m 0 min 2 min 265 W/m 12,9 km/h (3 Bft) 95,74 %
05.05.2021 10:18 5,5 C 6,7 C 6,1 C 94 % 1004,2 hPa 0,0 l/m 2 min 0 min 393 W/m 16,1 km/h (3 Bft) 100,00 %
05.05.2021 10:20 5,8 C 7,2 C 6,7 C 94 % 1004,2 hPa 0,0 l/m 2 min 2 min 417 W/m 12,9 km/h (3 Bft) 95,65 %
05.05.2021 10:22 6,0 C 8,3 C 7,3 C 94 % 1004,1 hPa 0,0 l/m 2 min 0 min 417 W/m 22,5 km/h (4 Bft) 97,87 %
05.05.2021 10:24 6,3 C 8,9 C 7,8 C 94 % 1004,1 hPa 0,0 l/m 2 min 2 min 572 W/m 19,3 km/h (3 Bft) 95,74 %
05.05.2021 10:26 6,5 C 8,3 C 7,3 C 94 % 1004,1 hPa 0,0 l/m 2 min 2 min 594 W/m 12,9 km/h (3 Bft) 97,87 %
05.05.2021 10:28 6,5 C 8,3 C 7,3 C 93 % 1004,0 hPa 0,0 l/m 0 min 0 min 308 W/m 19,3 km/h (3 Bft) 95,74 %
05.05.2021 10:30 6,7 C 8,9 C 7,8 C 93 % 1004,1 hPa 0,0 l/m 2 min 0 min 622 W/m 12,9 km/h (3 Bft) 97,87 %
05.05.2021 10:32 6,9 C 8,9 C 7,8 C 93 % 1004,1 hPa 0,0 l/m 2 min 0 min 698 W/m 16,1 km/h (3 Bft) 97,83 %
05.05.2021 10:34 7,0 C 8,9 C 7,8 C 92 % 1004,1 hPa 0,0 l/m 2 min 0 min 579 W/m 25,7 km/h (4 Bft) 97,87 %
05.05.2021 10:36 7,1 C 9,4 C 8,4 C 92 % 1004,1 hPa 0,0 l/m 2 min 0 min 506 W/m 12,9 km/h (3 Bft) 97,87 %
05.05.2021 10:38 7,3 C 8,9 C 7,3 C 92 % 1004,1 hPa 0,0 l/m 2 min 0 min 372 W/m 9,7 km/h (2 Bft) 97,87 %
05.05.2021 10:40 7,4 C 8,9 C 7,8 C 91 % 1004,2 hPa 0,0 l/m 2 min 0 min 366 W/m 12,9 km/h (3 Bft) 95,74 %
05.05.2021 10:42 7,5 C 8,9 C 7,8 C 91 % 1004,2 hPa 0,0 l/m 2 min 0 min 567 W/m 19,3 km/h (3 Bft) 95,65 %
05.05.2021 10:44 7,5 C 8,3 C 6,7 C 90 % 1004,3 hPa 0,0 l/m 0 min 0 min 276 W/m 19,3 km/h (3 Bft) 93,62 %
05.05.2021 10:46 7,4 C 7,8 C 6,7 C 89 % 1004,3 hPa 0,0 l/m 0 min 0 min 282 W/m 25,7 km/h (4 Bft) 97,87 %
05.05.2021 10:48 7,4 C 7,8 C 6,1 C 88 % 1004,3 hPa 0,0 l/m 0 min 0 min 301 W/m 29,0 km/h (5 Bft) 97,87 %
05.05.2021 10:50 7,3 C 7,8 C 6,1 C 88 % 1004,3 hPa 0,0 l/m 0 min 0 min 318 W/m 12,9 km/h (3 Bft) 97,87 %
05.05.2021 10:52 7,4 C 8,3 C 6,7 C 87 % 1004,3 hPa 0,0 l/m 0 min 0 min 302 W/m 16,1 km/h (3 Bft) 97,87 %
05.05.2021 10:54 7,4 C 8,3 C 6,1 C 87 % 1004,4 hPa 0,0 l/m 0 min 0 min 306 W/m 19,3 km/h (3 Bft) 95,65 %
05.05.2021 10:56 7,6 C 8,9 C 6,7 C 88 % 1004,3 hPa 0,0 l/m 2 min 0 min 372 W/m 19,3 km/h (3 Bft) 97,87 %
05.05.2021 10:58 7,7 C 8,3 C 6,7 C 87 % 1004,4 hPa 0,0 l/m 0 min 0 min 332 W/m 19,3 km/h (3 Bft) 97,87 %
05.05.2021 11:00 7,8 C 8,3 C 6,1 C 87 % 1004,4 hPa 0,0 l/m 0 min 0 min 184 W/m 19,3 km/h (3 Bft) 95,74 %
05.05.2021 11:02 7,7 C 7,8 C 5,6 C 87 % 1004,4 hPa 0,0 l/m 0 min 0 min 188 W/m 22,5 km/h (4 Bft) 97,87 %
05.05.2021 11:04 7,6 C 7,8 C 5,6 C 86 % 1004,4 hPa 0,0 l/m 0 min 0 min 121 W/m 16,1 km/h (3 Bft) 95,74 %
05.05.2021 11:06 7,6 C 7,2 C 5,6 C 86 % 1004,5 hPa 0,0 l/m 0 min 0 min 103 W/m 12,9 km/h (3 Bft) 100,00 %
05.05.2021 11:08 7,5 C 7,2 C 5,6 C 86 % 1004,4 hPa 0,0 l/m 0 min 0 min 196 W/m 22,5 km/h (4 Bft) 95,74 %
05.05.2021 11:10 7,5 C 7,8 C 5,6 C 85 % 1004,6 hPa 0,0 l/m 0 min 0 min 259 W/m 25,7 km/h (4 Bft) 97,87 %
05.05.2021 11:12 7,5 C 7,8 C 5,6 C 85 % 1004,5 hPa 0,0 l/m 0 min 0 min 221 W/m 22,5 km/h (4 Bft) 97,87 %
05.05.2021 11:14 7,5 C 7,8 C 5,6 C 85 % 1004,6 hPa 0,0 l/m 0 min 0 min 209 W/m 22,5 km/h (4 Bft) 95,74 %
05.05.2021 11:16 7,5 C 7,8 C 5,6 C 85 % 1004,7 hPa 0,0 l/m 0 min 0 min 278 W/m 19,3 km/h (3 Bft) 95,74 %
05.05.2021 11:18 7,5 C 8,3 C 6,1 C 86 % 1004,7 hPa 0,0 l/m 2 min 0 min 372 W/m 16,1 km/h (3 Bft) 97,83 %
05.05.2021 11:20 7,6 C 8,3 C 5,6 C 86 % 1004,7 hPa 0,0 l/m 2 min 0 min 354 W/m 22,5 km/h (4 Bft) 97,87 %
05.05.2021 11:22 7,6 C 8,3 C 5,6 C 85 % 1004,7 hPa 0,0 l/m 2 min 0 min 365 W/m 22,5 km/h (4 Bft) 97,87 %
05.05.2021 11:24 7,6 C 8,3 C 5,6 C 85 % 1004,6 hPa 0,0 l/m 0 min 0 min 244 W/m 19,3 km/h (3 Bft) 95,74 %
05.05.2021 11:26 7,6 C 8,3 C 5,6 C 84 % 1004,6 hPa 0,0 l/m 0 min 0 min 328 W/m 22,5 km/h (4 Bft) 97,87 %
05.05.2021 11:28 7,7 C 8,3 C 6,1 C 85 % 1004,8 hPa 0,0 l/m 2 min 0 min 371 W/m 19,3 km/h (3 Bft) 97,87 %
05.05.2021 11:30 7,8 C 8,3 C 6,1 C 84 % 1004,7 hPa 0,0 l/m 2 min 0 min 379 W/m 12,9 km/h (3 Bft) 97,83 %
05.05.2021 11:32 7,9 C 8,9 C 6,1 C 84 % 1004,7 hPa 0,0 l/m 2 min 0 min 413 W/m 19,3 km/h (3 Bft) 97,87 %
05.05.2021 11:34 8,0 C 9,4 C 6,7 C 84 % 1004,7 hPa 0,0 l/m 2 min 0 min 597 W/m 29,0 km/h (5 Bft) 97,87 %
05.05.2021 11:36 8,1 C 9,4 C 6,7 C 83 % 1004,7 hPa 0,0 l/m 2 min 0 min 512 W/m 32,2 km/h (5 Bft) 97,87 %
05.05.2021 11:38 8,2 C 9,4 C 6,7 C 83 % 1004,8 hPa 0,0 l/m 2 min 0 min 541 W/m 19,3 km/h (3 Bft) 97,87 %
05.05.2021 11:40 8,3 C 9,4 C 6,7 C 83 % 1004,8 hPa 0,0 l/m 2 min 0 min 411 W/m 19,3 km/h (3 Bft) 97,83 %
05.05.2021 11:42 8,4 C 8,9 C 6,7 C 83 % 1004,8 hPa 0,0 l/m 0 min 0 min 340 W/m 25,7 km/h (4 Bft) 97,87 %
05.05.2021 11:44 8,4 C 8,9 C 6,1 C 83 % 1004,9 hPa 0,0 l/m 0 min 0 min 277 W/m 19,3 km/h (3 Bft) 97,87 %
05.05.2021 11:46 8,4 C 8,9 C 6,1 C 83 % 1004,9 hPa 0,0 l/m 0 min 0 min 282 W/m 22,5 km/h (4 Bft) 97,87 %
05.05.2021 11:48 8,3 C 8,3 C 6,1 C 82 % 1004,9 hPa 0,0 l/m 0 min 0 min 252 W/m 29,0 km/h (5 Bft) 97,87 %
05.05.2021 11:50 8,3 C 8,3 C 6,1 C 82 % 1004,9 hPa 0,0 l/m 0 min 0 min 195 W/m 22,5 km/h (4 Bft) 97,87 %
05.05.2021 11:52 8,3 C 8,3 C 6,1 C 83 % 1005,0 hPa 0,0 l/m 0 min 2 min 115 W/m 19,3 km/h (3 Bft) 97,83 %
05.05.2021 11:54 8,1 C 7,8 C 5,6 C 82 % 1005,0 hPa 0,0 l/m 0 min 0 min 114 W/m 22,5 km/h (4 Bft) 97,87 %
05.05.2021 11:56 8,1 C 7,8 C 5,6 C 82 % 1005,0 hPa 0,0 l/m 0 min 0 min 98 W/m 22,5 km/h (4 Bft) 97,87 %
05.05.2021 11:58 8,0 C 7,8 C 5,6 C 82 % 1005,0 hPa 0,0 l/m 0 min 0 min 101 W/m 19,3 km/h (3 Bft) 97,87 %
05.05.2021 12:00 8,0 C 7,8 C 5,0 C 82 % 1005,0 hPa 0,0 l/m 0 min 0 min 126 W/m 19,3 km/h (3 Bft) 97,87 %
05.05.2021 12:02 8,0 C 7,8 C 5,0 C 82 % 1005,2 hPa 0,0 l/m 0 min 0 min 153 W/m 16,1 km/h (3 Bft) 97,87 %
05.05.2021 12:04 8,0 C 7,8 C 5,0 C 82 % 1005,3 hPa 0,0 l/m 0 min 0 min 144 W/m 22,5 km/h (4 Bft) 97,83 %
05.05.2021 12:08 7,8 C 7,2 C 4,5 C 82 % 1005,5 hPa 0,0 l/m 0 min 0 min 112 W/m 29,0 km/h (5 Bft) 97,87 %
05.05.2021 12:10 7,5 C 6,7 C 4,5 C 82 % 1005,6 hPa 0,0 l/m 0 min 0 min 84 W/m 25,7 km/h (4 Bft) 97,87 %
05.05.2021 12:12 7,2 C 6,1 C 4,5 C 83 % 1005,5 hPa 0,0 l/m 0 min 0 min 110 W/m 19,3 km/h (3 Bft) 97,87 %
05.05.2021 12:14 6,9 C 6,1 C 4,5 C 84 % 1005,5 hPa 0,0 l/m 0 min 0 min 127 W/m 19,3 km/h (3 Bft) 97,87 %
05.05.2021 12:16 6,8 C 6,1 C 4,5 C 84 % 1005,5 hPa 0,0 l/m 0 min 0 min 235 W/m 12,9 km/h (3 Bft) 100,00 %
05.05.2021 12:18 6,6 C 6,7 C 5,0 C 85 % 1005,4 hPa 0,0 l/m 0 min 0 min 335 W/m 19,3 km/h (3 Bft) 100,00 %
05.05.2021 12:20 6,7 C 7,2 C 5,0 C 86 % 1005,5 hPa 0,0 l/m 0 min 0 min 350 W/m 9,7 km/h (2 Bft) 100,00 %
05.05.2021 12:22 6,8 C 7,2 C 5,0 C 87 % 1005,5 hPa 0,0 l/m 0 min 0 min 326 W/m 12,9 km/h (3 Bft) 100,00 %
05.05.2021 12:24 6,9 C 7,8 C 5,6 C 87 % 1005,5 hPa 0,0 l/m 0 min 0 min 366 W/m 12,9 km/h (3 Bft) 100,00 %
05.05.2021 12:26 7,0 C 8,9 C 7,3 C 87 % 1005,5 hPa 0,0 l/m 2 min 0 min 456 W/m 22,5 km/h (4 Bft) 100,00 %
05.05.2021 12:28 7,5 C 10,0 C 9,5 C 87 % 1005,5 hPa 0,0 l/m 2 min 0 min 895 W/m 12,9 km/h (3 Bft) 97,83 %
05.05.2021 12:30 7,9 C 11,1 C 10,6 C 87 % 1005,5 hPa 0,0 l/m 2 min 0 min 923 W/m 12,9 km/h (3 Bft) 97,87 %
05.05.2021 12:32 8,4 C 11,7 C 12,3 C 84 % 1005,5 hPa 0,0 l/m 2 min 0 min 1032 W/m 16,1 km/h (3 Bft) 97,87 %
05.05.2021 12:34 8,9 C 12,2 C 14,5 C 83 % 1005,5 hPa 0,0 l/m 2 min 0 min 1048 W/m 32,2 km/h (5 Bft) 97,87 %
05.05.2021 12:36 9,4 C 12,2 C 14,5 C 81 % 1005,4 hPa 0,0 l/m 2 min 0 min 1056 W/m 25,7 km/h (4 Bft) 93,62 %
05.05.2021 12:38 9,8 C 12,8 C 16,1 C 79 % 1005,4 hPa 0,0 l/m 2 min 0 min 808 W/m 19,3 km/h (3 Bft) 97,87 %
05.05.2021 12:40 10,0 C 12,2 C 13,9 C 79 % 1005,5 hPa 0,0 l/m 2 min 0 min 1095 W/m 38,6 km/h (5 Bft) 97,83 %
05.05.2021 12:42 10,1 C 11,1 C 11,1 C 77 % 1005,5 hPa 0,0 l/m 0 min 0 min 323 W/m 22,5 km/h (4 Bft) 97,87 %
05.05.2021 12:44 10,0 C 10,6 C 10,0 C 76 % 1005,7 hPa 0,0 l/m 0 min 0 min 162 W/m 25,7 km/h (4 Bft) 97,87 %
05.05.2021 12:46 9,8 C 10,0 C 9,5 C 76 % 1005,7 hPa 0,0 l/m 0 min 0 min 179 W/m 16,1 km/h (3 Bft) 97,87 %
05.05.2021 12:48 9,6 C 9,4 C 8,4 C 76 % 1005,8 hPa 0,0 l/m 0 min 0 min 170 W/m 16,1 km/h (3 Bft) 97,87 %
05.05.2021 12:50 9,5 C 9,4 C 7,8 C 77 % 1005,8 hPa 0,0 l/m 0 min 2 min 213 W/m 12,9 km/h (3 Bft) 97,87 %
05.05.2021 12:52 9,4 C 9,4 C 8,4 C 78 % 1005,9 hPa 0,0 l/m 0 min 2 min 321 W/m 22,5 km/h (4 Bft) 97,83 %
05.05.2021 12:54 9,4 C 10,0 C 9,5 C 78 % 1005,9 hPa 0,0 l/m 2 min 0 min 425 W/m 19,3 km/h (3 Bft) 97,87 %
05.05.2021 12:56 9,4 C 10,6 C 10,6 C 77 % 1005,9 hPa 0,0 l/m 2 min 0 min 651 W/m 19,3 km/h (3 Bft) 97,87 %
05.05.2021 12:58 9,4 C 10,6 C 10,0 C 76 % 1006,0 hPa 0,0 l/m 2 min 0 min 508 W/m 22,5 km/h (4 Bft) 97,87 %
05.05.2021 13:00 9,5 C 10,6 C 10,6 C 76 % 1005,9 hPa 0,0 l/m 2 min 0 min 445 W/m 22,5 km/h (4 Bft) 93,62 %
05.05.2021 13:02 9,5 C 11,1 C 11,7 C 77 % 1005,9 hPa 0,0 l/m 2 min 0 min 561 W/m 16,1 km/h (3 Bft) 93,48 %
05.05.2021 13:04 9,8 C 11,7 C 13,4 C 77 % 1006,0 hPa 0,0 l/m 2 min 0 min 706 W/m 32,2 km/h (5 Bft) 95,74 %
05.05.2021 13:06 9,8 C 11,7 C 13,9 C 74 % 1006,0 hPa 0,0 l/m 2 min 0 min 1023 W/m 35,4 km/h (5 Bft) 93,62 %
05.05.2021 13:08 9,9 C 11,1 C 12,3 C 74 % 1005,9 hPa 0,0 l/m 2 min 0 min 1023 W/m 35,4 km/h (5 Bft) 95,74 %
05.05.2021 13:10 9,8 C 10,6 C 11,1 C 73 % 1005,9 hPa 0,0 l/m 2 min 0 min 673 W/m 38,6 km/h (5 Bft) 95,74 %
05.05.2021 13:12 9,9 C 11,7 C 12,3 C 74 % 1005,9 hPa 0,0 l/m 2 min 0 min 928 W/m 19,3 km/h (3 Bft) 93,62 %
05.05.2021 13:14 10,0 C 11,7 C 12,8 C 73 % 1006,0 hPa 0,0 l/m 2 min 0 min 456 W/m 29,0 km/h (5 Bft) 95,65 %
05.05.2021 13:16 10,1 C 11,7 C 13,4 C 74 % 1006,2 hPa 0,0 l/m 2 min 0 min 447 W/m 22,5 km/h (4 Bft) 93,62 %
05.05.2021 13:18 10,3 C 11,7 C 11,7 C 74 % 1006,2 hPa 0,0 l/m 0 min 0 min 351 W/m 29,0 km/h (5 Bft) 93,62 %
05.05.2021 13:20 10,3 C 10,6 C 10,6 C 74 % 1006,1 hPa 0,0 l/m 0 min 0 min 368 W/m 29,0 km/h (5 Bft) 95,74 %
05.05.2021 13:22 10,0 C 10,0 C 9,5 C 73 % 1006,1 hPa 0,0 l/m 0 min 0 min 191 W/m 25,7 km/h (4 Bft) 95,74 %
05.05.2021 13:24 9,8 C 9,4 C 8,4 C 73 % 1006,3 hPa 0,0 l/m 0 min 2 min 196 W/m 29,0 km/h (5 Bft) 93,62 %
05.05.2021 13:26 9,5 C 9,4 C 7,8 C 73 % 1006,2 hPa 0,0 l/m 0 min 0 min 268 W/m 32,2 km/h (5 Bft) 97,83 %
05.05.2021 13:28 9,4 C 10,0 C 10,0 C 73 % 1006,3 hPa 0,0 l/m 2 min 0 min 503 W/m 35,4 km/h (5 Bft) 97,87 %
05.05.2021 13:30 9,5 C 11,1 C 12,8 C 74 % 1006,4 hPa 0,0 l/m 2 min 2 min 824 W/m 25,7 km/h (4 Bft) 97,87 %
05.05.2021 13:32 9,8 C 11,7 C 12,3 C 75 % 1006,5 hPa 0,0 l/m 2 min 0 min 824 W/m 41,8 km/h (6 Bft) 97,87 %
05.05.2021 13:34 9,7 C 10,6 C 10,0 C 72 % 1006,5 hPa 0,2 l/m 2 min 0 min 656 W/m 32,2 km/h (5 Bft) 95,74 %
05.05.2021 13:36 9,5 C 10,0 C 8,9 C 71 % 1006,5 hPa 0,0 l/m 0 min 0 min 310 W/m 35,4 km/h (5 Bft) 95,74 %
05.05.2021 13:38 9,4 C 10,0 C 8,9 C 72 % 1006,6 hPa 0,0 l/m 0 min 2 min 388 W/m 19,3 km/h (3 Bft) 95,65 %
05.05.2021 13:40 9,4 C 10,0 C 8,9 C 72 % 1006,6 hPa 0,0 l/m 2 min 0 min 423 W/m 12,9 km/h (3 Bft) 100,00 %
05.05.2021 13:42 9,4 C 11,1 C 10,6 C 73 % 1006,6 hPa 0,0 l/m 2 min 0 min 621 W/m 19,3 km/h (3 Bft) 100,00 %
05.05.2021 13:44 9,6 C 11,1 C 10,6 C 74 % 1006,5 hPa 0,0 l/m 2 min 0 min 688 W/m 19,3 km/h (3 Bft) 100,00 %
05.05.2021 13:46 9,8 C 11,7 C 10,0 C 75 % 1006,6 hPa 0,0 l/m 2 min 0 min 741 W/m 19,3 km/h (3 Bft) 97,87 %
05.05.2021 13:48 10,0 C 11,7 C 10,0 C 74 % 1006,6 hPa 0,0 l/m 2 min 0 min 786 W/m 16,1 km/h (3 Bft) 100,00 %
05.05.2021 13:50 10,1 C 12,8 C 10,0 C 75 % 1006,6 hPa 0,0 l/m 2 min 0 min 769 W/m 22,5 km/h (4 Bft) 97,87 %
05.05.2021 13:52 10,3 C 12,2 C 10,0 C 74 % 1006,6 hPa 0,0 l/m 2 min 0 min 919 W/m 19,3 km/h (3 Bft) 100,00 %
05.05.2021 13:54 10,3 C 12,2 C 9,5 C 73 % 1006,7 hPa 0,0 l/m 2 min 0 min 940 W/m 25,7 km/h (4 Bft) 100,00 %
05.05.2021 13:56 10,3 C 11,1 C 8,9 C 74 % 1006,7 hPa 0,0 l/m 2 min 0 min 884 W/m 25,7 km/h (4 Bft) 100,00 %
05.05.2021 13:58 10,1 C 10,6 C 8,4 C 73 % 1006,8 hPa 0,0 l/m 0 min 0 min 298 W/m 25,7 km/h (4 Bft) 100,00 %
05.05.2021 14:00 10,0 C 10,6 C 8,4 C 74 % 1006,9 hPa 0,0 l/m 2 min 0 min 409 W/m 25,7 km/h (4 Bft) 97,83 %
05.05.2021 14:02 9,9 C 10,0 C 7,8 C 75 % 1007,1 hPa 0,0 l/m 0 min 0 min 291 W/m 32,2 km/h (5 Bft) 100,00 %
05.05.2021 14:04 9,6 C 9,4 C 7,3 C 75 % 1007,2 hPa 0,0 l/m 0 min 0 min 204 W/m 45,1 km/h (6 Bft) 100,00 %
05.05.2021 14:06 9,0 C 8,3 C 6,1 C 76 % 1007,3 hPa 0,0 l/m 0 min 0 min 210 W/m 29,0 km/h (5 Bft) 100,00 %
05.05.2021 14:08 8,4 C 7,2 C 5,0 C 79 % 1007,5 hPa 0,0 l/m 0 min 2 min 156 W/m 38,6 km/h (5 Bft) 100,00 %
05.05.2021 14:10 8,0 C 6,7 C 4,5 C 81 % 1007,5 hPa 0,0 l/m 0 min 2 min 118 W/m 29,0 km/h (5 Bft) 100,00 %
05.05.2021 14:12 7,7 C 6,7 C 4,5 C 83 % 1007,7 hPa 0,0 l/m 0 min 2 min 181 W/m 19,3 km/h (3 Bft) 63,83 %
05.05.2021 14:14 7,4 C 6,7 C 4,5 C 85 % 1007,7 hPa 0,0 l/m 0 min 2 min 215 W/m 16,1 km/h (3 Bft) 87,88 %
05.05.2021 14:16 7,3 C 7,2 C 4,5 C 86 % 1007,6 hPa 0,0 l/m 0 min 0 min 225 W/m 22,5 km/h (4 Bft) 100,00 %
05.05.2021 14:18 7,3 C 7,2 C 4,5 C 86 % 1007,7 hPa 0,0 l/m 0 min 0 min 233 W/m 22,5 km/h (4 Bft) 100,00 %
05.05.2021 14:20 7,2 C 7,2 C 5,0 C 86 % 1007,6 hPa 0,0 l/m 0 min 0 min 262 W/m 12,9 km/h (3 Bft) 100,00 %
05.05.2021 14:22 7,3 C 7,8 C 5,0 C 86 % 1007,5 hPa 0,0 l/m 0 min 0 min 282 W/m 19,3 km/h (3 Bft) 97,87 %
05.05.2021 14:24 7,3 C 7,8 C 5,6 C 86 % 1007,6 hPa 0,0 l/m 0 min 0 min 305 W/m 19,3 km/h (3 Bft) 100,00 %
05.05.2021 14:26 7,4 C 7,8 C 5,6 C 86 % 1007,6 hPa 0,0 l/m 0 min 0 min 332 W/m 22,5 km/h (4 Bft) 100,00 %
05.05.2021 14:28 7,4 C 8,3 C 6,1 C 86 % 1007,6 hPa 0,0 l/m 0 min 0 min 357 W/m 16,1 km/h (3 Bft) 100,00 %
05.05.2021 14:30 7,6 C 8,3 C 6,1 C 86 % 1007,7 hPa 0,0 l/m 2 min 0 min 395 W/m 16,1 km/h (3 Bft) 100,00 %
05.05.2021 14:32 7,7 C 8,9 C 6,7 C 86 % 1007,6 hPa 0,0 l/m 2 min 0 min 425 W/m 19,3 km/h (3 Bft) 100,00 %
05.05.2021 14:34 7,8 C 9,4 C 6,7 C 85 % 1007,7 hPa 0,0 l/m 2 min 0 min 458 W/m 16,1 km/h (3 Bft) 100,00 %
05.05.2021 14:36 8,0 C 9,4 C 7,3 C 86 % 1007,6 hPa 0,0 l/m 2 min 0 min 483 W/m 16,1 km/h (3 Bft) 100,00 %
05.05.2021 14:38 8,1 C 10,0 C 7,3 C 85 % 1007,7 hPa 0,0 l/m 2 min 0 min 550 W/m 12,9 km/h (3 Bft) 100,00 %
05.05.2021 14:40 8,4 C 10,0 C 7,3 C 84 % 1007,7 hPa 0,0 l/m 2 min 0 min 651 W/m 32,2 km/h (5 Bft) 100,00 %
05.05.2021 14:42 8,5 C 10,6 C 7,3 C 83 % 1007,6 hPa 0,0 l/m 2 min 0 min 683 W/m 22,5 km/h (4 Bft) 100,00 %
05.05.2021 14:44 8,7 C 11,1 C 7,8 C 83 % 1007,6 hPa 0,0 l/m 2 min 0 min 676 W/m 19,3 km/h (3 Bft) 100,00 %
05.05.2021 14:46 9,0 C 11,1 C 7,8 C 82 % 1007,7 hPa 0,0 l/m 2 min 0 min 784 W/m 19,3 km/h (3 Bft) 100,00 %
05.05.2021 14:48 9,1 C 11,1 C 7,8 C 81 % 1007,7 hPa 0,0 l/m 2 min 0 min 816 W/m 35,4 km/h (5 Bft) 100,00 %
05.05.2021 14:50 9,4 C 11,7 C 7,8 C 80 % 1007,7 hPa 0,0 l/m 2 min 0 min 926 W/m 22,5 km/h (4 Bft) 100,00 %
05.05.2021 14:52 9,6 C 12,8 C 8,4 C 80 % 1007,5 hPa 0,0 l/m 2 min 0 min 1034 W/m 19,3 km/h (3 Bft) 100,00 %
05.05.2021 14:54 9,9 C 11,7 C 8,4 C 80 % 1007,6 hPa 0,0 l/m 2 min 0 min 1048 W/m 22,5 km/h (4 Bft) 100,00 %
05.05.2021 14:56 9,9 C 10,0 C 7,8 C 78 % 1008,0 hPa 0,0 l/m 2 min 2 min 447 W/m 29,0 km/h (5 Bft) 100,00 %
05.05.2021 14:58 9,2 C 7,8 C 5,6 C 79 % 1008,2 hPa 0,2 l/m 0 min 2 min 56 W/m 41,8 km/h (6 Bft) 100,00 %
05.05.2021 15:00 8,3 C 6,7 C 4,5 C 81 % 1008,3 hPa 0,2 l/m 0 min 2 min 75 W/m 29,0 km/h (5 Bft) 97,87 %
05.05.2021 15:02 7,7 C 6,1 C 4,5 C 83 % 1008,2 hPa 0,0 l/m 0 min 2 min 111 W/m 19,3 km/h (3 Bft) 100,00 %
05.05.2021 15:04 7,3 C 6,1 C 3,9 C 85 % 1008,2 hPa 0,0 l/m 0 min 2 min 144 W/m 38,6 km/h (5 Bft) 97,87 %
05.05.2021 15:06 7,0 C 6,1 C 3,9 C 86 % 1008,2 hPa 0,0 l/m 0 min 2 min 190 W/m 29,0 km/h (5 Bft) 100,00 %
05.05.2021 15:08 6,9 C 6,7 C 4,5 C 87 % 1008,3 hPa 0,0 l/m 0 min 2 min 246 W/m 19,3 km/h (3 Bft) 100,00 %
05.05.2021 15:10 6,9 C 6,7 C 4,5 C 89 % 1008,3 hPa 0,0 l/m 0 min 0 min 349 W/m 19,3 km/h (3 Bft) 100,00 %
05.05.2021 15:12 7,0 C 7,2 C 5,0 C 89 % 1008,3 hPa 0,0 l/m 2 min 2 min 388 W/m 22,5 km/h (4 Bft) 100,00 %
05.05.2021 15:14 7,1 C 7,2 C 5,0 C 90 % 1008,3 hPa 0,0 l/m 0 min 0 min 297 W/m 22,5 km/h (4 Bft) 97,87 %
05.05.2021 15:16 7,2 C 7,8 C 5,0 C 90 % 1008,4 hPa 0,0 l/m 0 min 2 min 353 W/m 29,0 km/h (5 Bft) 100,00 %
05.05.2021 15:18 7,4 C 8,3 C 5,6 C 90 % 1008,4 hPa 0,0 l/m 2 min 0 min 439 W/m 19,3 km/h (3 Bft) 100,00 %
05.05.2021 15:20 7,6 C 10,0 C 6,1 C 91 % 1008,4 hPa 0,0 l/m 2 min 0 min 468 W/m 16,1 km/h (3 Bft) 100,00 %
05.05.2021 15:22 8,1 C 11,1 C 6,7 C 91 % 1008,4 hPa 0,0 l/m 2 min 0 min 882 W/m 25,7 km/h (4 Bft) 100,00 %
05.05.2021 15:24 8,5 C 11,7 C 7,3 C 91 % 1008,4 hPa 0,0 l/m 2 min 0 min 1020 W/m 25,7 km/h (4 Bft) 97,87 %
05.05.2021 15:26 8,8 C 10,6 C 7,3 C 91 % 1008,4 hPa 0,0 l/m 2 min 0 min 686 W/m 19,3 km/h (3 Bft) 97,87 %
05.05.2021 15:28 8,8 C 10,6 C 7,3 C 87 % 1008,3 hPa 0,0 l/m 2 min 0 min 545 W/m 32,2 km/h (5 Bft) 97,87 %
05.05.2021 15:30 8,8 C 10,6 C 7,3 C 86 % 1008,5 hPa 0,0 l/m 2 min 0 min 680 W/m 29,0 km/h (5 Bft) 97,87 %
05.05.2021 15:32 8,9 C 11,1 C 7,3 C 83 % 1008,4 hPa 0,0 l/m 2 min 0 min 950 W/m 35,4 km/h (5 Bft) 95,74 %
05.05.2021 15:34 9,0 C 11,1 C 7,3 C 83 % 1008,4 hPa 0,0 l/m 2 min 0 min 734 W/m 41,8 km/h (6 Bft) 97,83 %
05.05.2021 15:36 9,0 C 10,6 C 7,3 C 82 % 1008,5 hPa 0,0 l/m 2 min 0 min 595 W/m 22,5 km/h (4 Bft) 95,74 %
05.05.2021 15:38 9,0 C 10,6 C 7,3 C 81 % 1008,5 hPa 0,0 l/m 2 min 0 min 617 W/m 25,7 km/h (4 Bft) 97,87 %
05.05.2021 15:40 9,0 C 10,6 C 6,7 C 81 % 1008,6 hPa 0,0 l/m 2 min 0 min 571 W/m 29,0 km/h (5 Bft) 95,74 %
05.05.2021 15:42 9,0 C 10,0 C 6,7 C 81 % 1008,5 hPa 0,0 l/m 2 min 0 min 760 W/m 32,2 km/h (5 Bft) 93,62 %
05.05.2021 15:44 8,9 C 8,9 C 6,7 C 80 % 1008,6 hPa 0,0 l/m 0 min 0 min 260 W/m 22,5 km/h (4 Bft) 95,74 %
05.05.2021 15:46 8,8 C 8,9 C 6,7 C 80 % 1008,7 hPa 0,0 l/m 0 min 0 min 280 W/m 25,7 km/h (4 Bft) 95,65 %
05.05.2021 15:48 8,7 C 8,9 C 6,7 C 81 % 1008,7 hPa 0,0 l/m 2 min 0 min 361 W/m 19,3 km/h (3 Bft) 95,74 %
05.05.2021 15:50 8,7 C 8,9 C 6,7 C 82 % 1008,7 hPa 0,0 l/m 2 min 0 min 368 W/m 25,7 km/h (4 Bft) 95,74 %
05.05.2021 15:52 8,7 C 8,9 C 6,7 C 82 % 1008,7 hPa 0,0 l/m 0 min 0 min 267 W/m 16,1 km/h (3 Bft) 95,74 %
05.05.2021 15:54 8,8 C 10,0 C 6,7 C 82 % 1008,8 hPa 0,0 l/m 0 min 0 min 332 W/m 19,3 km/h (3 Bft) 89,36 %
05.05.2021 15:56 8,9 C 10,6 C 7,3 C 82 % 1008,7 hPa 0,0 l/m 2 min 0 min 470 W/m 12,9 km/h (3 Bft) 95,74 %
05.05.2021 15:58 9,0 C 10,6 C 7,8 C 83 % 1008,8 hPa 0,0 l/m 2 min 0 min 403 W/m 16,1 km/h (3 Bft) 95,65 %
05.05.2021 16:00 9,1 C 11,7 C 7,8 C 83 % 1008,8 hPa 0,0 l/m 2 min 0 min 437 W/m 12,9 km/h (3 Bft) 93,62 %
05.05.2021 16:02 9,3 C 12,8 C 8,4 C 83 % 1008,7 hPa 0,0 l/m 2 min 0 min 769 W/m 12,9 km/h (3 Bft) 93,62 %
05.05.2021 16:04 9,6 C 13,9 C 8,4 C 83 % 1008,7 hPa 0,0 l/m 2 min 0 min 860 W/m 16,1 km/h (3 Bft) 91,49 %
05.05.2021 16:06 9,9 C 13,3 C 8,4 C 82 % 1008,6 hPa 0,0 l/m 2 min 0 min 905 W/m 22,5 km/h (4 Bft) 91,49 %
05.05.2021 16:08 10,1 C 11,7 C 8,4 C 79 % 1008,7 hPa 0,0 l/m 2 min 0 min 905 W/m 29,0 km/h (5 Bft) 95,65 %
05.05.2021 16:10 10,1 C 11,7 C 7,8 C 78 % 1008,7 hPa 0,0 l/m 2 min 0 min 905 W/m 32,2 km/h (5 Bft) 52,27 %
05.05.2021 16:12 9,8 C 11,7 C 7,8 C 76 % 1008,8 hPa 0,0 l/m 2 min 0 min 905 W/m 41,8 km/h (6 Bft) 92,68 %
05.05.2021 16:14 9,6 C 10,6 C 7,3 C 77 % 1009,0 hPa 0,0 l/m 2 min 2 min 905 W/m 45,1 km/h (6 Bft) 93,62 %
05.05.2021 16:16 9,3 C 9,4 C 6,7 C 78 % 1008,9 hPa 0,0 l/m 2 min 2 min 366 W/m 25,7 km/h (4 Bft) 93,62 %
05.05.2021 16:18 9,0 C 8,9 C 5,6 C 77 % 1008,7 hPa 0,0 l/m 0 min 2 min 216 W/m 32,2 km/h (5 Bft) 95,74 %
05.05.2021 16:20 8,8 C 8,3 C 5,6 C 79 % 1008,9 hPa 0,0 l/m 0 min 2 min 164 W/m 25,7 km/h (4 Bft) 91,30 %
05.05.2021 16:22 8,5 C 7,8 C 5,0 C 81 % 1008,9 hPa 0,0 l/m 0 min 2 min 151 W/m 19,3 km/h (3 Bft) 93,62 %
05.05.2021 16:24 8,4 C 8,3 C 5,0 C 82 % 1008,8 hPa 0,2 l/m 0 min 2 min 211 W/m 16,1 km/h (3 Bft) 95,74 %
05.05.2021 16:26 8,4 C 10,6 C 5,6 C 84 % 1008,8 hPa 0,0 l/m 2 min 0 min 412 W/m 22,5 km/h (4 Bft) 95,74 %
05.05.2021 16:28 8,6 C 10,6 C 5,6 C 84 % 1008,7 hPa 0,0 l/m 2 min 0 min 779 W/m 16,1 km/h (3 Bft) 93,62 %
05.05.2021 16:30 8,8 C 10,0 C 5,6 C 85 % 1008,8 hPa 0,0 l/m 2 min 0 min 459 W/m 16,1 km/h (3 Bft) 97,87 %
05.05.2021 16:32 8,8 C 9,4 C 6,1 C 84 % 1008,8 hPa 0,0 l/m 0 min 0 min 225 W/m 19,3 km/h (3 Bft) 97,83 %
05.05.2021 16:34 8,9 C 10,0 C 6,1 C 82 % 1008,8 hPa 0,0 l/m 0 min 0 min 224 W/m 19,3 km/h (3 Bft) 95,74 %
05.05.2021 16:36 9,0 C 11,7 C 6,1 C 82 % 1008,8 hPa 0,0 l/m 0 min 0 min 225 W/m 19,3 km/h (3 Bft) 93,62 %
05.05.2021 16:38 9,3 C 13,3 C 6,7 C 81 % 1008,8 hPa 0,0 l/m 2 min 0 min 629 W/m 16,1 km/h (3 Bft) 97,87 %
05.05.2021 16:40 9,5 C 13,9 C 7,3 C 81 % 1008,8 hPa 0,0 l/m 2 min 0 min 716 W/m 25,7 km/h (4 Bft) 97,87 %
05.05.2021 16:42 9,8 C 13,3 C 7,8 C 79 % 1008,7 hPa 0,0 l/m 2 min 0 min 724 W/m 22,5 km/h (4 Bft) 97,87 %
05.05.2021 16:44 9,9 C 13,9 C 7,8 C 78 % 1008,6 hPa 0,0 l/m 2 min 0 min 705 W/m 25,7 km/h (4 Bft) 97,83 %
05.05.2021 16:46 10,0 C 13,9 C 7,8 C 77 % 1008,6 hPa 0,0 l/m 2 min 0 min 674 W/m 22,5 km/h (4 Bft) 97,87 %
05.05.2021 16:48 10,2 C 15,0 C 8,4 C 77 % 1008,7 hPa 0,0 l/m 2 min 0 min 673 W/m 22,5 km/h (4 Bft) 97,87 %
05.05.2021 16:50 10,5 C 13,9 C 8,4 C 78 % 1008,7 hPa 0,0 l/m 2 min 0 min 746 W/m 22,5 km/h (4 Bft) 97,87 %
05.05.2021 16:52 10,6 C 12,2 C 8,4 C 76 % 1008,7 hPa 0,0 l/m 2 min 0 min 702 W/m 19,3 km/h (3 Bft) 100,00 %
05.05.2021 16:54 10,6 C 12,8 C 8,4 C 76 % 1008,8 hPa 0,0 l/m 2 min 0 min 330 W/m 19,3 km/h (3 Bft) 97,83 %
05.05.2021 16:56 10,6 C 12,8 C 8,4 C 76 % 1008,8 hPa 0,0 l/m 2 min 0 min 751 W/m 16,1 km/h (3 Bft) 100,00 %
05.05.2021 16:58 10,6 C 12,8 C 8,4 C 74 % 1008,8 hPa 0,0 l/m 2 min 0 min 752 W/m 35,4 km/h (5 Bft) 100,00 %
05.05.2021 17:00 10,5 C 12,2 C 8,4 C 72 % 1008,7 hPa 0,0 l/m 2 min 0 min 369 W/m 22,5 km/h (4 Bft) 100,00 %
05.05.2021 17:02 10,5 C 13,3 C 8,4 C 70 % 1008,8 hPa 0,0 l/m 2 min 0 min 592 W/m 35,4 km/h (5 Bft) 95,74 %
05.05.2021 17:04 10,6 C 13,9 C 8,4 C 69 % 1008,8 hPa 0,0 l/m 2 min 0 min 650 W/m 25,7 km/h (4 Bft) 100,00 %
05.05.2021 17:06 10,7 C 14,4 C 8,4 C 69 % 1008,9 hPa 0,0 l/m 2 min 0 min 638 W/m 25,7 km/h (4 Bft) 100,00 %
05.05.2021 17:08 10,8 C 13,9 C 8,4 C 67 % 1008,9 hPa 0,0 l/m 2 min 0 min 615 W/m 29,0 km/h (5 Bft) 97,87 %
05.05.2021 17:10 10,8 C 13,9 C 8,4 C 67 % 1008,9 hPa 0,0 l/m 2 min 0 min 609 W/m 22,5 km/h (4 Bft) 100,00 %
05.05.2021 17:12 10,8 C 13,9 C 8,4 C 66 % 1008,8 hPa 0,0 l/m 2 min 0 min 580 W/m 25,7 km/h (4 Bft) 100,00 %
05.05.2021 17:14 10,8 C 13,9 C 8,4 C 66 % 1008,9 hPa 0,0 l/m 2 min 0 min 603 W/m 32,2 km/h (5 Bft) 100,00 %
05.05.2021 17:16 10,8 C 13,9 C 8,4 C 66 % 1008,9 hPa 0,0 l/m 2 min 0 min 599 W/m 16,1 km/h (3 Bft) 100,00 %
05.05.2021 17:18 10,9 C 12,8 C 8,4 C 66 % 1008,9 hPa 0,0 l/m 2 min 0 min 599 W/m 25,7 km/h (4 Bft) 100,00 %
05.05.2021 17:20 10,8 C 11,1 C 7,8 C 66 % 1008,9 hPa 0,0 l/m 0 min 0 min 166 W/m 19,3 km/h (3 Bft) 100,00 %
05.05.2021 17:22 10,6 C 10,6 C 7,8 C 66 % 1008,9 hPa 0,0 l/m 0 min 0 min 104 W/m 35,4 km/h (5 Bft) 100,00 %
05.05.2021 17:24 10,5 C 10,6 C 7,8 C 67 % 1008,9 hPa 0,0 l/m 0 min 0 min 164 W/m 19,3 km/h (3 Bft) 100,00 %
05.05.2021 17:26 10,4 C 10,6 C 7,8 C 67 % 1008,9 hPa 0,0 l/m 0 min 0 min 200 W/m 19,3 km/h (3 Bft) 95,74 %
05.05.2021 17:28 10,4 C 10,6 C 7,8 C 66 % 1009,0 hPa 0,0 l/m 0 min 0 min 211 W/m 19,3 km/h (3 Bft) 100,00 %
05.05.2021 17:30 10,3 C 10,6 C 7,8 C 67 % 1008,9 hPa 0,0 l/m 0 min 0 min 211 W/m 19,3 km/h (3 Bft) 100,00 %
05.05.2021 17:32 10,3 C 12,2 C 7,8 C 68 % 1008,9 hPa 0,0 l/m 2 min 0 min 269 W/m 19,3 km/h (3 Bft) 100,00 %
05.05.2021 17:34 10,4 C 12,2 C 8,4 C 68 % 1008,9 hPa 0,0 l/m 2 min 0 min 268 W/m 16,1 km/h (3 Bft) 100,00 %
05.05.2021 17:36 10,5 C 13,3 C 8,4 C 68 % 1009,0 hPa 0,0 l/m 2 min 0 min 443 W/m 29,0 km/h (5 Bft) 100,00 %
05.05.2021 17:38 10,6 C 12,2 C 8,4 C 67 % 1009,0 hPa 0,0 l/m 2 min 0 min 665 W/m 25,7 km/h (4 Bft) 100,00 %
05.05.2021 17:40 10,6 C 13,3 C 8,4 C 67 % 1009,0 hPa 0,0 l/m 0 min 0 min 229 W/m 19,3 km/h (3 Bft) 100,00 %
05.05.2021 17:42 10,7 C 13,3 C 8,4 C 67 % 1009,0 hPa 0,0 l/m 2 min 0 min 353 W/m 25,7 km/h (4 Bft) 97,83 %
05.05.2021 17:44 10,8 C 13,3 C 8,9 C 66 % 1009,0 hPa 0,0 l/m 2 min 0 min 587 W/m 25,7 km/h (4 Bft) 100,00 %
05.05.2021 17:46 10,7 C 11,7 C 8,4 C 65 % 1009,0 hPa 0,0 l/m 2 min 0 min 355 W/m 19,3 km/h (3 Bft) 100,00 %
05.05.2021 17:48 10,6 C 10,6 C 7,8 C 66 % 1009,0 hPa 0,0 l/m 0 min 0 min 141 W/m 22,5 km/h (4 Bft) 100,00 %
05.05.2021 17:50 10,5 C 11,1 C 7,8 C 66 % 1008,9 hPa 0,0 l/m 0 min 0 min 118 W/m 38,6 km/h (5 Bft) 100,00 %
05.05.2021 17:52 10,5 C 10,6 C 7,8 C 66 % 1009,0 hPa 0,0 l/m 0 min 0 min 129 W/m 25,7 km/h (4 Bft) 100,00 %
05.05.2021 17:54 10,4 C 11,7 C 7,8 C 65 % 1009,0 hPa 0,0 l/m 0 min 0 min 164 W/m 25,7 km/h (4 Bft) 100,00 %
05.05.2021 17:56 10,4 C 13,3 C 7,8 C 66 % 1009,1 hPa 0,0 l/m 2 min 0 min 504 W/m 25,7 km/h (4 Bft) 100,00 %
05.05.2021 17:58 10,5 C 12,8 C 8,4 C 67 % 1009,1 hPa 0,0 l/m 2 min 0 min 532 W/m 19,3 km/h (3 Bft) 100,00 %
05.05.2021 18:00 10,6 C 11,1 C 7,8 C 66 % 1009,0 hPa 0,0 l/m 0 min 0 min 185 W/m 22,5 km/h (4 Bft) 100,00 %
05.05.2021 18:02 10,5 C 11,1 C 7,8 C 66 % 1009,0 hPa 0,0 l/m 0 min 0 min 92 W/m 19,3 km/h (3 Bft) 100,00 %
05.05.2021 18:04 10,5 C 11,7 C 7,8 C 66 % 1009,1 hPa 0,0 l/m 0 min 0 min 178 W/m 16,1 km/h (3 Bft) 100,00 %
05.05.2021 18:08 10,5 C 12,2 C 8,4 C 67 % 1009,0 hPa 0,0 l/m 4 min 0 min 214 W/m 22,5 km/h (4 Bft) 100,00 %
05.05.2021 18:10 10,6 C 12,8 C 8,4 C 66 % 1009,0 hPa 0,0 l/m 2 min 0 min 457 W/m 9,7 km/h (2 Bft) 100,00 %
05.05.2021 18:12 10,6 C 12,8 C 8,4 C 66 % 1009,1 hPa 0,0 l/m 2 min 0 min 266 W/m 25,7 km/h (4 Bft) 100,00 %
05.05.2021 18:14 10,6 C 13,3 C 8,9 C 66 % 1009,1 hPa 0,0 l/m 2 min 0 min 496 W/m 25,7 km/h (4 Bft) 100,00 %
05.05.2021 18:16 10,7 C 12,2 C 8,9 C 66 % 1009,1 hPa 0,0 l/m 2 min 0 min 293 W/m 19,3 km/h (3 Bft) 97,83 %
05.05.2021 18:18 10,6 C 11,1 C 8,4 C 65 % 1009,1 hPa 0,0 l/m 0 min 0 min 139 W/m 19,3 km/h (3 Bft) 95,74 %
05.05.2021 18:20 10,5 C 10,6 C 7,8 C 66 % 1009,1 hPa 0,0 l/m 0 min 0 min 102 W/m 19,3 km/h (3 Bft) 95,74 %
05.05.2021 18:22 10,4 C 11,1 C 7,8 C 66 % 1009,1 hPa 0,0 l/m 0 min 0 min 178 W/m 16,1 km/h (3 Bft) 97,87 %
05.05.2021 18:24 10,4 C 12,2 C 7,8 C 66 % 1009,1 hPa 0,0 l/m 0 min 0 min 158 W/m 19,3 km/h (3 Bft) 97,87 %
05.05.2021 18:26 10,4 C 13,3 C 7,8 C 66 % 1009,2 hPa 0,0 l/m 2 min 0 min 459 W/m 19,3 km/h (3 Bft) 97,87 %
05.05.2021 18:28 10,5 C 12,8 C 7,8 C 65 % 1009,2 hPa 0,0 l/m 2 min 0 min 374 W/m 19,3 km/h (3 Bft) 97,83 %
05.05.2021 18:30 10,5 C 13,3 C 7,8 C 65 % 1009,2 hPa 0,0 l/m 2 min 0 min 293 W/m 22,5 km/h (4 Bft) 95,74 %
05.05.2021 18:32 10,6 C 13,9 C 8,4 C 66 % 1009,2 hPa 0,0 l/m 2 min 0 min 373 W/m 16,1 km/h (3 Bft) 97,87 %
05.05.2021 18:34 10,6 C 12,8 C 7,8 C 66 % 1009,2 hPa 0,0 l/m 2 min 0 min 283 W/m 12,9 km/h (3 Bft) 95,74 %
05.05.2021 18:36 10,6 C 13,3 C 7,8 C 65 % 1009,2 hPa 0,0 l/m 2 min 0 min 359 W/m 16,1 km/h (3 Bft) 97,87 %
05.05.2021 18:38 10,6 C 13,9 C 7,8 C 65 % 1009,2 hPa 0,0 l/m 2 min 0 min 353 W/m 29,0 km/h (5 Bft) 97,87 %
05.05.2021 18:40 10,6 C 13,9 C 7,8 C 65 % 1009,2 hPa 0,0 l/m 2 min 0 min 350 W/m 19,3 km/h (3 Bft) 97,83 %
05.05.2021 18:42 10,7 C 14,4 C 7,8 C 65 % 1009,2 hPa 0,0 l/m 2 min 0 min 339 W/m 22,5 km/h (4 Bft) 95,74 %
05.05.2021 18:44 10,8 C 14,4 C 7,8 C 64 % 1009,3 hPa 0,0 l/m 2 min 0 min 345 W/m 25,7 km/h (4 Bft) 93,62 %
05.05.2021 18:46 10,9 C 15,0 C 7,8 C 65 % 1009,3 hPa 0,0 l/m 2 min 0 min 351 W/m 19,3 km/h (3 Bft) 97,87 %
05.05.2021 18:48 11,0 C 15,0 C 8,4 C 65 % 1009,2 hPa 0,0 l/m 2 min 0 min 366 W/m 19,3 km/h (3 Bft) 48,89 %
05.05.2021 18:50 11,1 C 15,6 C 8,4 C 64 % 1009,2 hPa 0,0 l/m 2 min 0 min 336 W/m 19,3 km/h (3 Bft) 95,74 %
05.05.2021 18:52 11,1 C 14,4 C 8,4 C 63 % 1009,3 hPa 0,0 l/m 2 min 0 min 328 W/m 22,5 km/h (4 Bft) 95,65 %
05.05.2021 18:54 11,1 C 13,9 C 7,8 C 63 % 1009,2 hPa 0,0 l/m 2 min 0 min 325 W/m 22,5 km/h (4 Bft) 95,74 %
05.05.2021 18:56 11,1 C 12,8 C 7,8 C 63 % 1009,3 hPa 0,0 l/m 2 min 0 min 233 W/m 12,9 km/h (3 Bft) 93,62 %
05.05.2021 18:58 11,1 C 11,7 C 7,8 C 62 % 1009,3 hPa 0,0 l/m 0 min 0 min 135 W/m 19,3 km/h (3 Bft) 97,87 %
05.05.2021 19:00 11,0 C 11,1 C 7,8 C 62 % 1009,2 hPa 0,0 l/m 2 min 0 min 275 W/m 22,5 km/h (4 Bft) 97,87 %
05.05.2021 19:02 11,0 C 10,6 C 7,8 C 62 % 1009,2 hPa 0,0 l/m 2 min 0 min 261 W/m 16,1 km/h (3 Bft) 97,87 %
05.05.2021 19:04 10,9 C 10,6 C 7,8 C 62 % 1009,2 hPa 0,0 l/m 2 min 0 min 257 W/m 16,1 km/h (3 Bft) 97,83 %
05.05.2021 19:06 10,9 C 10,6 C 7,8 C 61 % 1009,2 hPa 0,0 l/m 2 min 0 min 255 W/m 12,9 km/h (3 Bft) 97,87 %
05.05.2021 19:08 10,9 C 10,6 C 7,8 C 63 % 1009,2 hPa 0,0 l/m 2 min 0 min 250 W/m 19,3 km/h (3 Bft) 97,87 %
05.05.2021 19:10 10,9 C 10,6 C 7,8 C 61 % 1009,2 hPa 0,0 l/m 2 min 0 min 240 W/m 25,7 km/h (4 Bft) 97,87 %
05.05.2021 19:12 10,8 C 10,6 C 7,8 C 61 % 1009,2 hPa 0,0 l/m 2 min 0 min 219 W/m 29,0 km/h (5 Bft) 97,87 %
05.05.2021 19:14 10,8 C 10,6 C 7,8 C 62 % 1009,1 hPa 0,0 l/m 0 min 0 min 117 W/m 19,3 km/h (3 Bft) 95,65 %
05.05.2021 19:16 10,8 C 10,0 C 7,8 C 62 % 1009,2 hPa 0,0 l/m 0 min 0 min 55 W/m 16,1 km/h (3 Bft) 95,74 %
05.05.2021 19:18 10,7 C 10,0 C 7,3 C 62 % 1009,2 hPa 0,0 l/m 0 min 0 min 47 W/m 19,3 km/h (3 Bft) 93,62 %
05.05.2021 19:20 10,7 C 10,0 C 7,3 C 61 % 1009,1 hPa 0,0 l/m 0 min 0 min 47 W/m 29,0 km/h (5 Bft) 95,74 %
05.05.2021 19:22 10,6 C 10,0 C 7,3 C 61 % 1009,1 hPa 0,0 l/m 0 min 0 min 46 W/m 16,1 km/h (3 Bft) 95,74 %
05.05.2021 19:24 10,6 C 10,0 C 7,3 C 61 % 1009,2 hPa 0,0 l/m 0 min 0 min 45 W/m 16,1 km/h (3 Bft) 93,62 %
05.05.2021 19:26 10,5 C 10,0 C 7,3 C 62 % 1009,2 hPa 0,0 l/m 0 min 0 min 43 W/m 16,1 km/h (3 Bft) 91,30 %
05.05.2021 19:28 10,5 C 10,0 C 7,3 C 62 % 1009,2 hPa 0,0 l/m 0 min 0 min 43 W/m 16,1 km/h (3 Bft) 93,62 %
05.05.2021 19:30 10,5 C 10,0 C 7,3 C 62 % 1009,2 hPa 0,0 l/m 0 min 0 min 42 W/m 16,1 km/h (3 Bft) 93,62 %
05.05.2021 19:32 10,5 C 10,0 C 7,3 C 63 % 1009,1 hPa 0,0 l/m 0 min 0 min 45 W/m 12,9 km/h (3 Bft) 95,74 %
05.05.2021 19:34 10,5 C 10,0 C 7,3 C 62 % 1009,2 hPa 0,0 l/m 0 min 0 min 42 W/m 19,3 km/h (3 Bft) 91,49 %
05.05.2021 19:36 10,4 C 10,0 C 7,3 C 62 % 1009,1 hPa 0,0 l/m 0 min 0 min 40 W/m 29,0 km/h (5 Bft) 95,74 %
05.05.2021 19:38 10,4 C 10,0 C 7,3 C 62 % 1009,2 hPa 0,0 l/m 0 min 0 min 39 W/m 16,1 km/h (3 Bft) 95,65 %
05.05.2021 19:40 10,4 C 10,0 C 7,3 C 62 % 1009,2 hPa 0,0 l/m 0 min 0 min 39 W/m 9,7 km/h (2 Bft) 97,87 %
05.05.2021 19:42 10,4 C 10,0 C 7,3 C 62 % 1009,2 hPa 0,0 l/m 0 min 0 min 38 W/m 16,1 km/h (3 Bft) 97,87 %
05.05.2021 19:44 10,4 C 10,0 C 7,3 C 62 % 1009,2 hPa 0,0 l/m 0 min 0 min 37 W/m 16,1 km/h (3 Bft) 97,87 %
05.05.2021 19:46 10,3 C 9,4 C 6,7 C 62 % 1009,2 hPa 0,0 l/m 0 min 0 min 37 W/m 16,1 km/h (3 Bft) 97,87 %
05.05.2021 19:48 10,3 C 9,4 C 6,7 C 62 % 1009,3 hPa 0,0 l/m 0 min 0 min 35 W/m 16,1 km/h (3 Bft) 95,74 %
05.05.2021 19:50 10,2 C 9,4 C 6,7 C 62 % 1009,2 hPa 0,0 l/m 0 min 0 min 35 W/m 12,9 km/h (3 Bft) 97,83 %
05.05.2021 19:52 10,1 C 9,4 C 6,7 C 62 % 1009,2 hPa 0,0 l/m 0 min 0 min 33 W/m 16,1 km/h (3 Bft) 97,87 %
05.05.2021 19:54 10,1 C 9,4 C 6,7 C 62 % 1009,2 hPa 0,0 l/m 0 min 0 min 33 W/m 19,3 km/h (3 Bft) 100,00 %
05.05.2021 19:56 10,0 C 9,4 C 6,7 C 62 % 1009,2 hPa 0,0 l/m 0 min 0 min 32 W/m 19,3 km/h (3 Bft) 100,00 %
05.05.2021 19:58 10,0 C 9,4 C 6,7 C 62 % 1009,2 hPa 0,0 l/m 0 min 0 min 32 W/m 19,3 km/h (3 Bft) 97,87 %
05.05.2021 20:00 10,0 C 9,4 C 6,7 C 63 % 1009,3 hPa 0,0 l/m 0 min 0 min 32 W/m 12,9 km/h (3 Bft) 100,00 %
05.05.2021 20:02 9,9 C 9,4 C 6,7 C 63 % 1009,2 hPa 0,0 l/m 0 min 0 min 30 W/m 16,1 km/h (3 Bft) 100,00 %
05.05.2021 20:04 9,9 C 9,4 C 6,7 C 63 % 1009,3 hPa 0,0 l/m 0 min 0 min 30 W/m 9,7 km/h (2 Bft) 100,00 %
05.05.2021 20:06 9,8 C 9,4 C 6,7 C 63 % 1009,3 hPa 0,0 l/m 0 min 0 min 28 W/m 12,9 km/h (3 Bft) 100,00 %
05.05.2021 20:08 9,8 C 8,9 C 6,7 C 63 % 1009,3 hPa 0,0 l/m 0 min 0 min 28 W/m 12,9 km/h (3 Bft) 100,00 %
05.05.2021 20:10 9,8 C 8,9 C 6,1 C 63 % 1009,3 hPa 0,0 l/m 0 min 0 min 27 W/m 12,9 km/h (3 Bft) 97,87 %
05.05.2021 20:12 9,7 C 8,9 C 6,1 C 63 % 1009,3 hPa 0,0 l/m 0 min 0 min 26 W/m 12,9 km/h (3 Bft) 100,00 %
05.05.2021 20:14 9,7 C 8,9 C 6,1 C 63 % 1009,4 hPa 0,0 l/m 0 min 0 min 25 W/m 19,3 km/h (3 Bft) 100,00 %
05.05.2021 20:16 9,6 C 8,9 C 6,1 C 63 % 1009,4 hPa 0,0 l/m 0 min 0 min 25 W/m 16,1 km/h (3 Bft) 100,00 %
05.05.2021 20:18 9,6 C 8,9 C 6,1 C 63 % 1009,4 hPa 0,0 l/m 0 min 0 min 25 W/m 9,7 km/h (2 Bft) 97,87 %
05.05.2021 20:20 9,5 C 8,9 C 6,1 C 63 % 1009,4 hPa 0,0 l/m 0 min 0 min 24 W/m 16,1 km/h (3 Bft) 100,00 %
05.05.2021 20:22 9,5 C 8,9 C 6,1 C 64 % 1009,5 hPa 0,0 l/m 0 min 0 min 21 W/m 12,9 km/h (3 Bft) 100,00 %
05.05.2021 20:24 9,4 C 8,3 C 6,1 C 64 % 1009,5 hPa 0,0 l/m 0 min 0 min 21 W/m 16,1 km/h (3 Bft) 97,83 %
05.05.2021 20:26 9,4 C 8,3 C 6,1 C 65 % 1009,5 hPa 0,0 l/m 0 min 0 min 19 W/m 12,9 km/h (3 Bft) 100,00 %
05.05.2021 20:28 9,3 C 8,3 C 6,1 C 65 % 1009,5 hPa 0,0 l/m 0 min 0 min 18 W/m 6,4 km/h (2 Bft) 100,00 %
05.05.2021 20:30 9,3 C 8,3 C 5,6 C 65 % 1009,5 hPa 0,0 l/m 0 min 0 min 18 W/m 6,4 km/h (2 Bft) 100,00 %
05.05.2021 20:32 9,2 C 8,3 C 5,6 C 66 % 1009,6 hPa 0,0 l/m 0 min 0 min 18 W/m 6,4 km/h (2 Bft) 100,00 %
05.05.2021 20:34 9,1 C 8,3 C 5,6 C 66 % 1009,6 hPa 0,0 l/m 0 min 0 min 18 W/m 3,2 km/h (1 Bft) 100,00 %
05.05.2021 20:36 9,1 C 8,3 C 5,6 C 66 % 1009,6 hPa 0,0 l/m 0 min 0 min 19 W/m 6,4 km/h (2 Bft) 97,83 %
05.05.2021 20:38 9,0 C 7,8 C 5,6 C 67 % 1009,6 hPa 0,0 l/m 0 min 0 min 19 W/m 6,4 km/h (2 Bft) 97,87 %
05.05.2021 20:40 9,0 C 7,8 C 5,6 C 68 % 1009,5 hPa 0,0 l/m 0 min 0 min 17 W/m 6,4 km/h (2 Bft) 100,00 %
05.05.2021 20:42 8,9 C 7,8 C 5,6 C 67 % 1009,6 hPa 0,0 l/m 0 min 0 min 16 W/m 9,7 km/h (2 Bft) 100,00 %
05.05.2021 20:44 8,9 C 7,8 C 5,6 C 67 % 1009,7 hPa 0,0 l/m 0 min 0 min 14 W/m 3,2 km/h (1 Bft) 100,00 %
05.05.2021 20:46 8,9 C 7,8 C 5,6 C 68 % 1009,6 hPa 0,0 l/m 0 min 0 min 12 W/m 3,2 km/h (1 Bft) 97,87 %
05.05.2021 20:48 8,8 C 7,8 C 5,6 C 68 % 1009,6 hPa 0,0 l/m 0 min 0 min 12 W/m 3,2 km/h (1 Bft) 100,00 %
05.05.2021 20:50 8,8 C 7,8 C 5,0 C 68 % 1009,6 hPa 0,0 l/m 0 min 0 min 10 W/m 6,4 km/h (2 Bft) 97,87 %
05.05.2021 20:52 8,7 C 7,8 C 5,0 C 68 % 1009,6 hPa 0,0 l/m 0 min 0 min 9 W/m 3,2 km/h (1 Bft) 100,00 %
05.05.2021 20:54 8,6 C 7,8 C 5,0 C 69 % 1009,7 hPa 0,0 l/m 0 min 0 min 7 W/m 3,2 km/h (1 Bft) 100,00 %
05.05.2021 20:56 8,6 C 7,8 C 5,0 C 69 % 1009,7 hPa 0,0 l/m 0 min 0 min 7 W/m 3,2 km/h (1 Bft) 97,87 %
05.05.2021 20:58 8,5 C 7,2 C 5,0 C 69 % 1009,7 hPa 0,0 l/m 0 min 0 min 5 W/m 6,4 km/h (2 Bft) 100,00 %
05.05.2021 21:00 8,5 C 7,2 C 5,0 C 69 % 1009,7 hPa 0,0 l/m 0 min 0 min 5 W/m 3,2 km/h (1 Bft) 100,00 %
05.05.2021 21:02 8,4 C 7,2 C 5,0 C 69 % 1009,7 hPa 0,0 l/m 0 min 0 min 5 W/m 3,2 km/h (1 Bft) 100,00 %
05.05.2021 21:04 8,4 C 7,2 C 4,5 C 69 % 1009,7 hPa 0,0 l/m 0 min 0 min 0 W/m 3,2 km/h (1 Bft) 97,87 %
05.05.2021 21:06 8,3 C 7,2 C 4,5 C 69 % 1009,7 hPa 0,0 l/m 0 min 0 min 0 W/m 3,2 km/h (1 Bft) 95,74 %
05.05.2021 21:08 8,3 C 7,2 C 4,5 C 70 % 1009,7 hPa 0,0 l/m 0 min 0 min 0 W/m 6,4 km/h (2 Bft) 97,87 %
05.05.2021 21:10 8,3 C 7,2 C 4,5 C 70 % 1009,7 hPa 0,0 l/m 0 min 0 min 0 W/m 3,2 km/h (1 Bft) 97,87 %
05.05.2021 21:12 8,2 C 7,2 C 4,5 C 70 % 1009,7 hPa 0,0 l/m 0 min 0 min 0 W/m 6,4 km/h (2 Bft) 97,83 %
05.05.2021 21:14 8,1 C 7,2 C 4,5 C 70 % 1009,7 hPa 0,0 l/m 0 min 0 min 0 W/m 3,2 km/h (1 Bft) 95,74 %
05.05.2021 21:16 8,1 C 6,7 C 4,5 C 71 % 1009,8 hPa 0,0 l/m 0 min 0 min 0 W/m 3,2 km/h (1 Bft) 97,87 %
05.05.2021 21:18 8,0 C 6,7 C 3,9 C 71 % 1009,8 hPa 0,0 l/m 0 min 0 min 0 W/m 3,2 km/h (1 Bft) 93,62 %
05.05.2021 21:20 8,0 C 6,7 C 3,9 C 71 % 1009,7 hPa 0,0 l/m 0 min 0 min 0 W/m 0,0 km/h (0 Bft) 95,74 %
05.05.2021 21:22 7,9 C 6,7 C 3,9 C 71 % 1009,8 hPa 0,0 l/m 0 min 0 min 0 W/m 3,2 km/h (1 Bft) 93,48 %
05.05.2021 21:24 7,9 C 6,1 C 3,9 C 72 % 1009,8 hPa 0,0 l/m 0 min 0 min 0 W/m 3,2 km/h (1 Bft) 93,62 %
05.05.2021 21:26 7,8 C 6,1 C 3,9 C 72 % 1009,8 hPa 0,0 l/m 0 min 0 min 0 W/m 0,0 km/h (0 Bft) 95,74 %
05.05.2021 21:28 7,7 C 6,1 C 3,9 C 72 % 1009,8 hPa 0,0 l/m 0 min 0 min 0 W/m 0,0 km/h (0 Bft) 95,74 %
05.05.2021 21:30 7,7 C 6,1 C 3,4 C 73 % 1009,9 hPa 0,0 l/m 0 min 0 min 0 W/m 0,0 km/h (0 Bft) 95,74 %
05.05.2021 21:32 7,6 C 5,6 C 3,4 C 73 % 1009,9 hPa 0,0 l/m 0 min 0 min 0 W/m 0,0 km/h (0 Bft) 95,74 %
05.05.2021 21:34 7,6 C 5,6 C 3,4 C 73 % 1009,9 hPa 0,0 l/m 0 min 0 min 0 W/m 0,0 km/h (0 Bft) 95,65 %
05.05.2021 21:36 7,5 C 5,6 C 3,4 C 73 % 1009,9 hPa 0,0 l/m 0 min 0 min 0 W/m 0,0 km/h (0 Bft) 95,74 %
05.05.2021 21:38 7,5 C 5,6 C 3,4 C 73 % 1009,9 hPa 0,0 l/m 0 min 0 min 0 W/m 0,0 km/h (0 Bft) 93,62 %
05.05.2021 21:40 7,5 C 5,6 C 3,4 C 73 % 1009,9 hPa 0,0 l/m 0 min 0 min 0 W/m 0,0 km/h (0 Bft) 95,74 %
05.05.2021 21:42 7,4 C 5,6 C 2,8 C 74 % 1010,0 hPa 0,0 l/m 0 min 0 min 0 W/m 0,0 km/h (0 Bft) 93,62 %
05.05.2021 21:44 7,3 C 5,0 C 2,8 C 74 % 1010,0 hPa 0,0 l/m 0 min 0 min 0 W/m 0,0 km/h (0 Bft) 95,74 %
05.05.2021 21:46 7,3 C 5,0 C 2,8 C 74 % 1010,0 hPa 0,0 l/m 0 min 0 min 0 W/m 0,0 km/h (0 Bft) 95,65 %
05.05.2021 21:48 7,1 C 5,0 C 2,8 C 74 % 1010,0 hPa 0,0 l/m 0 min 0 min 0 W/m 0,0 km/h (0 Bft) 95,74 %
05.05.2021 21:50 7,1 C 5,0 C 2,8 C 74 % 1010,0 hPa 0,0 l/m 0 min 0 min 0 W/m 0,0 km/h (0 Bft) 97,87 %
05.05.2021 21:52 7,0 C 5,0 C 2,8 C 75 % 1010,0 hPa 0,0 l/m 0 min 0 min 0 W/m 0,0 km/h (0 Bft) 97,87 %
05.05.2021 21:54 7,0 C 5,0 C 2,8 C 75 % 1010,0 hPa 0,0 l/m 0 min 0 min 0 W/m 0,0 km/h (0 Bft) 97,87 %
05.05.2021 21:56 6,9 C 5,0 C 2,8 C 75 % 1010,0 hPa 0,0 l/m 0 min 0 min 0 W/m 0,0 km/h (0 Bft) 97,87 %
05.05.2021 21:58 6,9 C 5,0 C 2,8 C 76 % 1010,1 hPa 0,0 l/m 0 min 0 min 0 W/m 0,0 km/h (0 Bft) 95,65 %
05.05.2021 22:00 6,8 C 5,0 C 2,8 C 76 % 1010,0 hPa 0,0 l/m 0 min 0 min 0 W/m 0,0 km/h (0 Bft) 97,87 %
05.05.2021 22:02 6,7 C 5,0 C 2,8 C 76 % 1010,0 hPa 0,0 l/m 0 min 0 min 0 W/m 0,0 km/h (0 Bft) 95,74 %
05.05.2021 22:04 6,6 C 5,0 C 2,3 C 76 % 1010,0 hPa 0,0 l/m 0 min 0 min 0 W/m 0,0 km/h (0 Bft) 97,87 %
05.05.2021 22:06 6,6 C 5,0 C 2,3 C 76 % 1010,0 hPa 0,0 l/m 0 min 0 min 0 W/m 0,0 km/h (0 Bft) 93,62 %
05.05.2021 22:08 6,6 C 4,4 C 2,3 C 76 % 1010,0 hPa 0,0 l/m 0 min 0 min 0 W/m 0,0 km/h (0 Bft) 97,83 %
05.05.2021 22:10 6,5 C 4,4 C 2,3 C 76 % 1010,0 hPa 0,0 l/m 0 min 0 min 0 W/m 0,0 km/h (0 Bft) 100,00 %
05.05.2021 22:12 6,5 C 4,4 C 2,3 C 76 % 1010,0 hPa 0,0 l/m 0 min 0 min 0 W/m 0,0 km/h (0 Bft) 100,00 %
05.05.2021 22:14 6,5 C 4,4 C 2,3 C 77 % 1010,0 hPa 0,0 l/m 0 min 0 min 0 W/m 0,0 km/h (0 Bft) 100,00 %
05.05.2021 22:16 6,4 C 4,4 C 2,3 C 77 % 1010,0 hPa 0,0 l/m 0 min 0 min 0 W/m 0,0 km/h (0 Bft) 100,00 %
05.05.2021 22:18 6,4 C 4,4 C 2,3 C 77 % 1010,0 hPa 0,0 l/m 0 min 0 min 0 W/m 0,0 km/h (0 Bft) 100,00 %
05.05.2021 22:20 6,4 C 4,4 C 2,3 C 77 % 1010,0 hPa 0,0 l/m 0 min 0 min 0 W/m 0,0 km/h (0 Bft) 100,00 %
05.05.2021 22:22 6,3 C 4,4 C 2,3 C 77 % 1010,0 hPa 0,0 l/m 0 min 0 min 0 W/m 0,0 km/h (0 Bft) 97,87 %
05.05.2021 22:24 6,3 C 4,4 C 2,3 C 77 % 1010,1 hPa 0,0 l/m 0 min 0 min 0 W/m 0,0 km/h (0 Bft) 100,00 %
05.05.2021 22:26 6,2 C 4,4 C 2,3 C 78 % 1010,1 hPa 0,0 l/m 0 min 0 min 0 W/m 0,0 km/h (0 Bft) 100,00 %
05.05.2021 22:28 6,1 C 4,4 C 2,3 C 78 % 1010,0 hPa 0,0 l/m 0 min 0 min 0 W/m 0,0 km/h (0 Bft) 97,87 %
05.05.2021 22:30 6,1 C 4,4 C 2,3 C 78 % 1010,0 hPa 0,0 l/m 0 min 0 min 0 W/m 0,0 km/h (0 Bft) 100,00 %
05.05.2021 22:32 6,0 C 4,4 C 2,3 C 78 % 1010,0 hPa 0,0 l/m 0 min 0 min 0 W/m 0,0 km/h (0 Bft) 100,00 %
05.05.2021 22:34 6,0 C 4,4 C 2,3 C 78 % 1010,0 hPa 0,0 l/m 0 min 0 min 0 W/m 0,0 km/h (0 Bft) 100,00 %
05.05.2021 22:36 5,9 C 4,4 C 2,3 C 78 % 1010,0 hPa 0,0 l/m 0 min 0 min 0 W/m 0,0 km/h (0 Bft) 100,00 %
05.05.2021 22:38 5,9 C 3,9 C 1,7 C 78 % 1010,0 hPa 0,0 l/m 0 min 0 min 0 W/m 0,0 km/h (0 Bft) 100,00 %
05.05.2021 22:40 5,9 C 3,9 C 1,7 C 79 % 1010,0 hPa 0,0 l/m 0 min 0 min 0 W/m 0,0 km/h (0 Bft) 100,00 %
05.05.2021 22:42 5,8 C 3,9 C 1,7 C 79 % 1010,0 hPa 0,0 l/m 0 min 0 min 0 W/m 0,0 km/h (0 Bft) 100,00 %
05.05.2021 22:44 5,8 C 3,9 C 1,7 C 79 % 1010,0 hPa 0,0 l/m 0 min 0 min 0 W/m 0,0 km/h (0 Bft) 100,00 %
05.05.2021 22:46 5,7 C 3,9 C 1,7 C 80 % 1010,0 hPa 0,0 l/m 0 min 0 min 0 W/m 0,0 km/h (0 Bft) 100,00 %
05.05.2021 22:48 5,7 C 3,9 C 1,7 C 80 % 1010,0 hPa 0,0 l/m 0 min 0 min 0 W/m 0,0 km/h (0 Bft) 100,00 %
05.05.2021 22:50 5,6 C 3,9 C 1,7 C 80 % 1009,9 hPa 0,0 l/m 0 min 0 min 0 W/m 0,0 km/h (0 Bft) 100,00 %
05.05.2021 22:52 5,6 C 3,9 C 1,7 C 81 % 1009,9 hPa 0,0 l/m 0 min 0 min 0 W/m 0,0 km/h (0 Bft) 100,00 %
05.05.2021 22:54 5,5 C 3,9 C 2,3 C 81 % 1009,9 hPa 0,0 l/m 0 min 0 min 0 W/m 0,0 km/h (0 Bft) 97,83 %
05.05.2021 22:56 5,5 C 3,9 C 2,3 C 81 % 1009,9 hPa 0,0 l/m 0 min 0 min 0 W/m 0,0 km/h (0 Bft) 100,00 %
05.05.2021 22:58 5,5 C 3,9 C 2,3 C 81 % 1009,8 hPa 0,0 l/m 0 min 0 min 0 W/m 0,0 km/h (0 Bft) 100,00 %
05.05.2021 23:01 5,4 C 3,9 C 2,3 C 82 % 1009,8 hPa 0,0 l/m 0 min 0 min 0 W/m 0,0 km/h (0 Bft) 98,57 %
05.05.2021 23:02 5,4 C 3,9 C 2,3 C 82 % 1009,8 hPa 0,0 l/m 0 min 0 min 0 W/m 0,0 km/h (0 Bft) 95,83 %
05.05.2021 23:04 5,3 C 3,9 C 2,3 C 82 % 1009,8 hPa 0,0 l/m 0 min 0 min 0 W/m 0,0 km/h (0 Bft) 97,87 %
05.05.2021 23:06 5,3 C 3,9 C 2,3 C 82 % 1009,8 hPa 0,0 l/m 0 min 0 min 0 W/m 0,0 km/h (0 Bft) 95,65 %
05.05.2021 23:08 5,3 C 3,9 C 2,3 C 82 % 1009,8 hPa 0,0 l/m 0 min 0 min 0 W/m 0,0 km/h (0 Bft) 97,87 %
05.05.2021 23:10 5,3 C 3,9 C 2,3 C 82 % 1009,9 hPa 0,0 l/m 0 min 0 min 0 W/m 0,0 km/h (0 Bft) 97,87 %
05.05.2021 23:12 5,2 C 3,9 C 2,3 C 83 % 1009,8 hPa 0,0 l/m 0 min 0 min 0 W/m 0,0 km/h (0 Bft) 97,87 %
05.05.2021 23:14 5,1 C 3,9 C 2,3 C 83 % 1009,9 hPa 0,0 l/m 0 min 0 min 0 W/m 0,0 km/h (0 Bft) 97,87 %
05.05.2021 23:16 5,1 C 3,9 C 2,3 C 83 % 1009,9 hPa 0,0 l/m 0 min 0 min 0 W/m 0,0 km/h (0 Bft) 97,87 %
05.05.2021 23:18 5,1 C 3,9 C 2,3 C 83 % 1009,9 hPa 0,0 l/m 0 min 0 min 0 W/m 0,0 km/h (0 Bft) 97,83 %
05.05.2021 23:20 5,1 C 4,4 C 2,3 C 83 % 1009,9 hPa 0,0 l/m 0 min 0 min 0 W/m 0,0 km/h (0 Bft) 97,87 %
05.05.2021 23:22 5,1 C 4,4 C 2,3 C 83 % 1009,9 hPa 0,0 l/m 0 min 0 min 0 W/m 0,0 km/h (0 Bft) 93,62 %
05.05.2021 23:24 5,0 C 4,4 C 2,3 C 83 % 1009,9 hPa 0,0 l/m 0 min 0 min 0 W/m 0,0 km/h (0 Bft) 97,87 %
05.05.2021 23:26 5,0 C 4,4 C 2,3 C 84 % 1009,9 hPa 0,0 l/m 0 min 0 min 0 W/m 0,0 km/h (0 Bft) 97,87 %
05.05.2021 23:32 5,0 C 4,4 C 2,3 C 84 % 1010,1 hPa 0,0 l/m 0 min 0 min 0 W/m 3,2 km/h (1 Bft) 100,00 %
05.05.2021 23:37 5,0 C 5,0 C 2,8 C 85 % 1010,4 hPa 0,0 l/m 0 min 0 min 0 W/m 0,0 km/h (0 Bft) 97,73 %
05.05.2021 23:38 5,1 C 5,0 C 2,8 C 85 % 1010,4 hPa 0,0 l/m 0 min 0 min 0 W/m 6,4 km/h (2 Bft) 100,00 %
05.05.2021 23:40 5,3 C 5,6 C 2,8 C 85 % 1010,5 hPa 0,0 l/m 0 min 2 min 0 W/m 16,1 km/h (3 Bft) 100,00 %
05.05.2021 23:42 5,5 C 5,6 C 2,8 C 85 % 1010,5 hPa 0,0 l/m 0 min 2 min 0 W/m 16,1 km/h (3 Bft) 97,83 %
05.05.2021 23:44 5,7 C 5,6 C 2,8 C 85 % 1010,5 hPa 0,0 l/m 0 min 2 min 0 W/m 6,4 km/h (2 Bft) 100,00 %
05.05.2021 23:46 5,8 C 5,6 C 2,8 C 84 % 1010,5 hPa 0,0 l/m 0 min 2 min 0 W/m 6,4 km/h (2 Bft) 97,87 %
05.05.2021 23:48 5,9 C 5,6 C 2,8 C 84 % 1010,6 hPa 0,0 l/m 0 min 2 min 0 W/m 6,4 km/h (2 Bft) 100,00 %
05.05.2021 23:50 5,9 C 5,6 C 2,3 C 84 % 1010,5 hPa 0,0 l/m 0 min 2 min 0 W/m 22,5 km/h (4 Bft) 100,00 %
05.05.2021 23:52 5,9 C 5,6 C 2,3 C 84 % 1010,4 hPa 0,0 l/m 0 min 2 min 0 W/m 6,4 km/h (2 Bft) 100,00 %
05.05.2021 23:54 6,0 C 5,6 C 2,8 C 84 % 1010,3 hPa 0,0 l/m 0 min 2 min 0 W/m 6,4 km/h (2 Bft) 97,87 %
05.05.2021 23:56 6,0 C 5,6 C 2,8 C 85 % 1010,2 hPa 0,0 l/m 0 min 2 min 0 W/m 3,2 km/h (1 Bft) 97,87 %
05.05.2021 23:58 6,0 C 5,6 C 2,8 C 85 % 1010,2 hPa 0,2 l/m 0 min 0 min 0 W/m 3,2 km/h (1 Bft) 97,87 %
_ Min-Zeit 05:32 08:04 22:38 19:06 03:50 - - - - 21:20 18:48
Minimum _ 5,0 C 3,9 C 1,7 C 61 % 1001,4 hPa - - - - 0,0 km/h (0 Bft) 48,89 %
_ Max-Zeit 18:50 18:50 12:38 08:22 23:48 08:02 18:08 08:50 12:40 14:04 00:02
Maximum _ 11,1 C 15,6 C 16,1 C 94 % 1010,6 hPa 0,8 l/m 4 min 3 min 1095 W/m 45,1 km/h
W-NW (6 Bft)
100,00 %
Durchschnitt _ 7,4 C 7,4 C 5,3 C 82 % 1005,6 hPa #3,6 l/m #5:20 h #2:54 h 279 W/m 15,5 km/h (3 Bft) 97,39 %
© 2021 W. Hausmann